Wetterdaten: Sonntag, 02.07.2023
Datum Zeit Temp. Aussen Temp. o. S. Temp +5cm Feuchte Auss Luftdruck Regen Sonnenschein Regendauer Solar Windben Empfang
02.07.2023 00:00 17,5 C 16,7 C 13,3 C 88 % 1007,9 hPa 0,0 l/m 0 min 0 min 0 W/m 9,7 km/h (2 Bft) 97,56 %
02.07.2023 00:02 17,5 C 16,7 C 13,9 C 88 % 1008,0 hPa 0,0 l/m 0 min 0 min 0 W/m 12,9 km/h (3 Bft) 95,12 %
02.07.2023 00:04 17,5 C 16,7 C 13,9 C 88 % 1007,9 hPa 0,0 l/m 0 min 0 min 0 W/m 9,7 km/h (2 Bft) 97,87 %
02.07.2023 00:07 17,5 C 16,7 C 13,9 C 88 % 1007,9 hPa 0,0 l/m 0 min 0 min 0 W/m 9,7 km/h (2 Bft) 95,71 %
02.07.2023 00:08 17,5 C 16,7 C 13,9 C 88 % 1007,9 hPa 0,0 l/m 0 min 0 min 0 W/m 6,4 km/h (2 Bft) 100,00 %
02.07.2023 00:12 17,5 C 16,7 C 13,9 C 88 % 1007,9 hPa 0,0 l/m 0 min 0 min 0 W/m 12,9 km/h (3 Bft) 100,00 %
02.07.2023 00:14 17,5 C 16,7 C 13,9 C 88 % 1008,0 hPa 0,0 l/m 0 min 0 min 0 W/m 9,7 km/h (2 Bft) 100,00 %
02.07.2023 00:16 17,5 C 16,7 C 13,3 C 88 % 1008,0 hPa 0,0 l/m 0 min 0 min 0 W/m 6,4 km/h (2 Bft) 100,00 %
02.07.2023 00:18 17,5 C 16,7 C 13,3 C 88 % 1008,0 hPa 0,0 l/m 0 min 0 min 0 W/m 16,1 km/h (3 Bft) 100,00 %
02.07.2023 00:20 17,6 C 16,7 C 13,3 C 88 % 1008,0 hPa 0,0 l/m 0 min 0 min 0 W/m 6,4 km/h (2 Bft) 100,00 %
02.07.2023 00:22 17,6 C 16,7 C 13,3 C 88 % 1008,0 hPa 0,0 l/m 0 min 0 min 0 W/m 6,4 km/h (2 Bft) 97,62 %
02.07.2023 00:24 17,6 C 16,7 C 13,3 C 88 % 1008,0 hPa 0,0 l/m 0 min 0 min 0 W/m 6,4 km/h (2 Bft) 100,00 %
02.07.2023 00:26 17,6 C 16,7 C 13,3 C 88 % 1008,0 hPa 0,0 l/m 0 min 0 min 0 W/m 12,9 km/h (3 Bft) 97,96 %
02.07.2023 00:28 17,6 C 16,7 C 13,9 C 88 % 1008,0 hPa 0,0 l/m 0 min 0 min 0 W/m 6,4 km/h (2 Bft) 100,00 %
02.07.2023 00:30 17,6 C 16,7 C 13,9 C 88 % 1008,0 hPa 0,0 l/m 0 min 0 min 0 W/m 3,2 km/h (1 Bft) 100,00 %
02.07.2023 00:32 17,6 C 16,7 C 13,3 C 88 % 1008,0 hPa 0,0 l/m 0 min 0 min 0 W/m 6,4 km/h (2 Bft) 97,87 %
02.07.2023 00:34 17,6 C 16,7 C 13,3 C 88 % 1008,0 hPa 0,0 l/m 0 min 0 min 0 W/m 3,2 km/h (1 Bft) 100,00 %
02.07.2023 00:36 17,6 C 16,7 C 13,3 C 88 % 1008,0 hPa 0,0 l/m 0 min 0 min 0 W/m 12,9 km/h (3 Bft) 100,00 %
02.07.2023 00:38 17,6 C 16,7 C 13,3 C 88 % 1008,0 hPa 0,0 l/m 0 min 0 min 0 W/m 6,4 km/h (2 Bft) 100,00 %
02.07.2023 00:40 17,6 C 16,7 C 13,3 C 88 % 1008,0 hPa 0,0 l/m 0 min 0 min 0 W/m 9,7 km/h (2 Bft) 100,00 %
02.07.2023 00:42 17,6 C 16,7 C 13,3 C 88 % 1008,1 hPa 0,0 l/m 0 min 0 min 0 W/m 12,9 km/h (3 Bft) 97,83 %
02.07.2023 00:44 17,6 C 16,7 C 13,3 C 88 % 1008,1 hPa 0,0 l/m 0 min 0 min 0 W/m 6,4 km/h (2 Bft) 100,00 %
02.07.2023 00:46 17,6 C 16,7 C 13,9 C 88 % 1008,2 hPa 0,0 l/m 0 min 0 min 0 W/m 12,9 km/h (3 Bft) 100,00 %
02.07.2023 00:48 17,6 C 16,7 C 13,9 C 88 % 1008,1 hPa 0,0 l/m 0 min 0 min 0 W/m 16,1 km/h (3 Bft) 95,74 %
02.07.2023 00:50 17,6 C 16,7 C 13,9 C 88 % 1008,1 hPa 0,0 l/m 0 min 0 min 0 W/m 16,1 km/h (3 Bft) 97,87 %
02.07.2023 00:52 17,6 C 16,7 C 13,3 C 88 % 1008,1 hPa 0,0 l/m 0 min 0 min 0 W/m 6,4 km/h (2 Bft) 95,74 %
02.07.2023 00:54 17,6 C 16,7 C 13,3 C 88 % 1008,1 hPa 0,0 l/m 0 min 0 min 0 W/m 6,4 km/h (2 Bft) 93,62 %
02.07.2023 00:56 17,6 C 16,7 C 13,3 C 88 % 1008,1 hPa 0,0 l/m 0 min 0 min 0 W/m 12,9 km/h (3 Bft) 95,65 %
02.07.2023 00:58 17,6 C 16,7 C 13,3 C 88 % 1008,1 hPa 0,0 l/m 0 min 0 min 0 W/m 12,9 km/h (3 Bft) 97,87 %
02.07.2023 01:00 17,6 C 16,7 C 13,3 C 88 % 1008,2 hPa 0,0 l/m 0 min 0 min 0 W/m 6,4 km/h (2 Bft) 97,87 %
02.07.2023 01:02 17,6 C 16,7 C 13,3 C 88 % 1008,1 hPa 0,0 l/m 0 min 0 min 0 W/m 6,4 km/h (2 Bft) 97,73 %
02.07.2023 01:04 17,6 C 16,7 C 13,3 C 88 % 1008,2 hPa 0,0 l/m 0 min 0 min 0 W/m 9,7 km/h (2 Bft) 95,74 %
02.07.2023 01:06 17,6 C 16,7 C 13,3 C 88 % 1008,2 hPa 0,0 l/m 0 min 0 min 0 W/m 6,4 km/h (2 Bft) 97,87 %
02.07.2023 01:08 17,6 C 16,7 C 13,3 C 88 % 1008,2 hPa 0,0 l/m 0 min 0 min 0 W/m 6,4 km/h (2 Bft) 97,87 %
02.07.2023 01:10 17,6 C 16,7 C 13,3 C 88 % 1008,1 hPa 0,0 l/m 0 min 0 min 0 W/m 6,4 km/h (2 Bft) 95,83 %
02.07.2023 01:12 17,6 C 16,7 C 13,3 C 88 % 1008,1 hPa 0,0 l/m 0 min 0 min 0 W/m 3,2 km/h (1 Bft) 96,00 %
02.07.2023 01:14 17,6 C 16,7 C 13,3 C 88 % 1008,1 hPa 0,0 l/m 0 min 0 min 0 W/m 6,4 km/h (2 Bft) 95,74 %
02.07.2023 01:16 17,6 C 16,7 C 13,3 C 88 % 1008,1 hPa 0,0 l/m 0 min 0 min 0 W/m 6,4 km/h (2 Bft) 93,62 %
02.07.2023 01:18 17,6 C 16,7 C 13,3 C 88 % 1008,1 hPa 0,0 l/m 0 min 0 min 0 W/m 6,4 km/h (2 Bft) 95,74 %
02.07.2023 01:20 17,6 C 16,7 C 13,3 C 88 % 1008,1 hPa 0,0 l/m 0 min 0 min 0 W/m 6,4 km/h (2 Bft) 93,62 %
02.07.2023 01:22 17,6 C 16,7 C 13,3 C 88 % 1008,1 hPa 0,0 l/m 0 min 0 min 0 W/m 6,4 km/h (2 Bft) 95,65 %
02.07.2023 01:24 17,6 C 16,7 C 13,3 C 88 % 1008,1 hPa 0,0 l/m 0 min 0 min 0 W/m 9,7 km/h (2 Bft) 93,75 %
02.07.2023 01:26 17,6 C 16,7 C 13,3 C 88 % 1008,1 hPa 0,0 l/m 0 min 0 min 0 W/m 9,7 km/h (2 Bft) 95,74 %
02.07.2023 01:28 17,6 C 16,7 C 13,3 C 88 % 1008,1 hPa 0,0 l/m 0 min 0 min 0 W/m 9,7 km/h (2 Bft) 93,62 %
02.07.2023 01:30 17,6 C 16,7 C 13,3 C 88 % 1008,0 hPa 0,0 l/m 0 min 0 min 0 W/m 6,4 km/h (2 Bft) 93,62 %
02.07.2023 01:32 17,5 C 16,7 C 13,3 C 88 % 1008,1 hPa 0,0 l/m 0 min 0 min 0 W/m 9,7 km/h (2 Bft) 95,74 %
02.07.2023 01:34 17,5 C 16,7 C 13,3 C 88 % 1008,0 hPa 0,0 l/m 0 min 0 min 0 W/m 12,9 km/h (3 Bft) 93,48 %
02.07.2023 01:36 17,5 C 16,7 C 13,3 C 88 % 1008,0 hPa 0,0 l/m 0 min 0 min 0 W/m 16,1 km/h (3 Bft) 93,62 %
02.07.2023 01:38 17,5 C 16,7 C 13,3 C 88 % 1008,0 hPa 0,0 l/m 0 min 0 min 0 W/m 6,4 km/h (2 Bft) 91,49 %
02.07.2023 01:40 17,4 C 16,7 C 13,3 C 88 % 1008,0 hPa 0,0 l/m 0 min 0 min 0 W/m 6,4 km/h (2 Bft) 93,62 %
02.07.2023 01:42 17,4 C 16,7 C 13,3 C 88 % 1008,0 hPa 0,0 l/m 0 min 0 min 0 W/m 3,2 km/h (1 Bft) 97,87 %
02.07.2023 01:44 17,4 C 16,7 C 13,3 C 88 % 1008,0 hPa 0,0 l/m 0 min 0 min 0 W/m 6,4 km/h (2 Bft) 95,74 %
02.07.2023 01:46 17,4 C 16,7 C 13,3 C 88 % 1008,0 hPa 0,0 l/m 0 min 0 min 0 W/m 6,4 km/h (2 Bft) 93,62 %
02.07.2023 01:48 17,4 C 16,7 C 13,3 C 88 % 1008,0 hPa 0,0 l/m 0 min 0 min 0 W/m 6,4 km/h (2 Bft) 93,48 %
02.07.2023 01:50 17,4 C 16,7 C 13,3 C 88 % 1008,0 hPa 0,0 l/m 0 min 0 min 0 W/m 6,4 km/h (2 Bft) 93,62 %
02.07.2023 01:52 17,4 C 16,7 C 13,3 C 88 % 1008,0 hPa 0,0 l/m 0 min 0 min 0 W/m 6,4 km/h (2 Bft) 93,62 %
02.07.2023 01:54 17,4 C 16,7 C 13,3 C 88 % 1008,0 hPa 0,0 l/m 0 min 0 min 0 W/m 3,2 km/h (1 Bft) 95,74 %
02.07.2023 01:56 17,4 C 16,7 C 13,3 C 88 % 1008,0 hPa 0,0 l/m 0 min 0 min 0 W/m 12,9 km/h (3 Bft) 95,74 %
02.07.2023 01:58 17,4 C 16,7 C 13,3 C 88 % 1007,9 hPa 0,0 l/m 0 min 0 min 0 W/m 12,9 km/h (3 Bft) 95,12 %
02.07.2023 02:00 17,4 C 16,7 C 13,3 C 88 % 1008,0 hPa 0,0 l/m 0 min 0 min 0 W/m 6,4 km/h (2 Bft) 93,62 %
02.07.2023 02:02 17,3 C 16,7 C 13,3 C 88 % 1007,9 hPa 0,0 l/m 0 min 0 min 0 W/m 6,4 km/h (2 Bft) 97,87 %
02.07.2023 02:04 17,3 C 16,7 C 13,3 C 88 % 1008,0 hPa 0,0 l/m 0 min 0 min 0 W/m 12,9 km/h (3 Bft) 100,00 %
02.07.2023 02:06 17,3 C 16,7 C 13,3 C 88 % 1007,9 hPa 0,0 l/m 0 min 0 min 0 W/m 12,9 km/h (3 Bft) 100,00 %
02.07.2023 02:08 17,3 C 16,7 C 13,3 C 88 % 1007,9 hPa 0,0 l/m 0 min 0 min 0 W/m 9,7 km/h (2 Bft) 100,00 %
02.07.2023 02:10 17,3 C 16,7 C 13,3 C 87 % 1008,0 hPa 0,0 l/m 0 min 0 min 0 W/m 16,1 km/h (3 Bft) 100,00 %
02.07.2023 02:12 17,3 C 16,7 C 13,3 C 87 % 1007,9 hPa 0,0 l/m 0 min 0 min 0 W/m 6,4 km/h (2 Bft) 100,00 %
02.07.2023 02:14 17,3 C 16,7 C 13,3 C 87 % 1007,9 hPa 0,0 l/m 0 min 0 min 0 W/m 19,3 km/h (3 Bft) 100,00 %
02.07.2023 02:16 17,3 C 16,7 C 13,3 C 87 % 1007,9 hPa 0,0 l/m 0 min 0 min 0 W/m 16,1 km/h (3 Bft) 100,00 %
02.07.2023 02:18 17,3 C 16,7 C 13,3 C 87 % 1007,9 hPa 0,0 l/m 0 min 0 min 0 W/m 16,1 km/h (3 Bft) 100,00 %
02.07.2023 02:20 17,3 C 16,7 C 13,3 C 87 % 1007,9 hPa 0,0 l/m 0 min 0 min 0 W/m 6,4 km/h (2 Bft) 100,00 %
02.07.2023 02:22 17,3 C 16,7 C 13,3 C 87 % 1007,9 hPa 0,0 l/m 0 min 0 min 0 W/m 12,9 km/h (3 Bft) 100,00 %
02.07.2023 02:24 17,2 C 16,1 C 13,3 C 87 % 1007,9 hPa 0,0 l/m 0 min 0 min 0 W/m 19,3 km/h (3 Bft) 97,87 %
02.07.2023 02:26 17,2 C 16,1 C 13,3 C 87 % 1007,9 hPa 0,0 l/m 0 min 0 min 0 W/m 12,9 km/h (3 Bft) 100,00 %
02.07.2023 02:28 17,2 C 16,1 C 13,3 C 87 % 1007,9 hPa 0,0 l/m 0 min 0 min 0 W/m 12,9 km/h (3 Bft) 100,00 %
02.07.2023 02:30 17,2 C 16,1 C 13,3 C 87 % 1007,9 hPa 0,0 l/m 0 min 0 min 0 W/m 12,9 km/h (3 Bft) 100,00 %
02.07.2023 02:32 17,2 C 16,1 C 13,3 C 87 % 1007,9 hPa 0,0 l/m 0 min 0 min 0 W/m 12,9 km/h (3 Bft) 100,00 %
02.07.2023 02:34 17,2 C 16,1 C 13,3 C 87 % 1007,9 hPa 0,0 l/m 0 min 0 min 0 W/m 12,9 km/h (3 Bft) 100,00 %
02.07.2023 02:36 17,1 C 16,1 C 13,3 C 87 % 1007,9 hPa 0,0 l/m 0 min 0 min 0 W/m 3,2 km/h (1 Bft) 100,00 %
02.07.2023 02:38 17,1 C 16,1 C 13,3 C 87 % 1008,0 hPa 0,0 l/m 0 min 0 min 0 W/m 12,9 km/h (3 Bft) 100,00 %
02.07.2023 02:40 17,1 C 16,1 C 13,3 C 87 % 1008,0 hPa 0,0 l/m 0 min 0 min 0 W/m 16,1 km/h (3 Bft) 97,87 %
02.07.2023 02:42 17,1 C 16,1 C 13,3 C 87 % 1008,0 hPa 0,0 l/m 0 min 0 min 0 W/m 12,9 km/h (3 Bft) 100,00 %
02.07.2023 02:44 17,1 C 16,1 C 13,3 C 87 % 1008,0 hPa 0,0 l/m 0 min 0 min 0 W/m 6,4 km/h (2 Bft) 97,87 %
02.07.2023 02:46 17,1 C 16,1 C 13,3 C 87 % 1007,9 hPa 0,0 l/m 0 min 0 min 0 W/m 19,3 km/h (3 Bft) 100,00 %
02.07.2023 02:48 17,1 C 16,1 C 13,3 C 87 % 1008,0 hPa 0,0 l/m 0 min 0 min 0 W/m 22,5 km/h (4 Bft) 100,00 %
02.07.2023 02:50 17,0 C 16,1 C 13,3 C 87 % 1007,9 hPa 0,0 l/m 0 min 0 min 0 W/m 16,1 km/h (3 Bft) 100,00 %
02.07.2023 02:52 17,0 C 16,1 C 13,3 C 87 % 1007,8 hPa 0,0 l/m 0 min 0 min 0 W/m 12,9 km/h (3 Bft) 100,00 %
02.07.2023 02:54 17,0 C 16,1 C 13,3 C 87 % 1007,8 hPa 0,0 l/m 0 min 0 min 0 W/m 19,3 km/h (3 Bft) 100,00 %
02.07.2023 02:56 16,9 C 16,1 C 12,8 C 87 % 1007,8 hPa 0,0 l/m 0 min 0 min 0 W/m 19,3 km/h (3 Bft) 100,00 %
02.07.2023 02:58 16,9 C 16,1 C 12,8 C 87 % 1007,8 hPa 0,0 l/m 0 min 0 min 0 W/m 12,9 km/h (3 Bft) 97,67 %
02.07.2023 03:00 16,9 C 16,1 C 12,8 C 86 % 1007,8 hPa 0,0 l/m 0 min 0 min 0 W/m 12,9 km/h (3 Bft) 100,00 %
02.07.2023 03:02 16,8 C 16,1 C 12,8 C 86 % 1007,8 hPa 0,0 l/m 0 min 0 min 0 W/m 22,5 km/h (4 Bft) 97,87 %
02.07.2023 03:04 16,8 C 16,1 C 12,8 C 86 % 1007,8 hPa 0,0 l/m 0 min 0 min 0 W/m 16,1 km/h (3 Bft) 100,00 %
02.07.2023 03:06 16,8 C 16,1 C 12,8 C 86 % 1007,7 hPa 0,0 l/m 0 min 0 min 0 W/m 16,1 km/h (3 Bft) 100,00 %
02.07.2023 03:08 16,8 C 16,1 C 12,8 C 86 % 1007,7 hPa 0,0 l/m 0 min 0 min 0 W/m 16,1 km/h (3 Bft) 97,44 %
02.07.2023 03:10 16,8 C 16,1 C 12,8 C 86 % 1007,8 hPa 0,0 l/m 0 min 0 min 0 W/m 12,9 km/h (3 Bft) 100,00 %
02.07.2023 03:12 16,8 C 16,1 C 12,8 C 86 % 1007,9 hPa 0,0 l/m 0 min 0 min 0 W/m 12,9 km/h (3 Bft) 97,83 %
02.07.2023 03:14 16,8 C 16,1 C 12,8 C 86 % 1007,8 hPa 0,0 l/m 0 min 0 min 0 W/m 12,9 km/h (3 Bft) 100,00 %
02.07.2023 03:16 16,7 C 16,1 C 12,8 C 86 % 1007,9 hPa 0,0 l/m 0 min 0 min 0 W/m 12,9 km/h (3 Bft) 100,00 %
02.07.2023 03:18 16,7 C 15,6 C 12,8 C 86 % 1007,9 hPa 0,0 l/m 0 min 0 min 0 W/m 12,9 km/h (3 Bft) 100,00 %
02.07.2023 03:20 16,7 C 15,6 C 12,8 C 86 % 1007,9 hPa 0,0 l/m 0 min 0 min 0 W/m 12,9 km/h (3 Bft) 100,00 %
02.07.2023 03:22 16,7 C 15,6 C 12,8 C 86 % 1007,9 hPa 0,0 l/m 0 min 0 min 0 W/m 9,7 km/h (2 Bft) 97,96 %
02.07.2023 03:24 16,6 C 15,6 C 12,8 C 86 % 1007,9 hPa 0,0 l/m 0 min 0 min 0 W/m 9,7 km/h (2 Bft) 95,74 %
02.07.2023 03:26 16,6 C 15,6 C 12,8 C 86 % 1007,9 hPa 0,0 l/m 0 min 0 min 0 W/m 12,9 km/h (3 Bft) 97,87 %
02.07.2023 03:28 16,6 C 15,6 C 12,8 C 86 % 1007,8 hPa 0,0 l/m 0 min 0 min 0 W/m 9,7 km/h (2 Bft) 97,83 %
02.07.2023 03:30 16,6 C 15,6 C 12,8 C 86 % 1007,9 hPa 0,0 l/m 0 min 0 min 0 W/m 19,3 km/h (3 Bft) 97,87 %
02.07.2023 03:32 16,6 C 15,6 C 12,8 C 86 % 1007,8 hPa 0,0 l/m 0 min 0 min 0 W/m 12,9 km/h (3 Bft) 97,87 %
02.07.2023 03:34 16,5 C 15,6 C 12,8 C 86 % 1007,8 hPa 0,0 l/m 0 min 0 min 0 W/m 16,1 km/h (3 Bft) 97,87 %
02.07.2023 03:36 16,4 C 15,6 C 12,8 C 86 % 1007,7 hPa 0,0 l/m 0 min 0 min 0 W/m 16,1 km/h (3 Bft) 97,87 %
02.07.2023 03:38 16,4 C 15,6 C 12,2 C 86 % 1007,6 hPa 0,0 l/m 0 min 0 min 0 W/m 16,1 km/h (3 Bft) 97,87 %
02.07.2023 03:40 16,3 C 15,6 C 12,2 C 86 % 1007,6 hPa 0,0 l/m 0 min 0 min 0 W/m 16,1 km/h (3 Bft) 97,83 %
02.07.2023 03:42 16,3 C 15,6 C 12,2 C 86 % 1007,7 hPa 0,0 l/m 0 min 0 min 0 W/m 19,3 km/h (3 Bft) 97,87 %
02.07.2023 03:44 16,3 C 15,6 C 12,2 C 86 % 1007,7 hPa 0,0 l/m 0 min 0 min 0 W/m 16,1 km/h (3 Bft) 93,62 %
02.07.2023 03:46 16,2 C 15,6 C 12,2 C 86 % 1007,7 hPa 0,0 l/m 0 min 0 min 0 W/m 19,3 km/h (3 Bft) 95,74 %
02.07.2023 03:48 16,2 C 15,6 C 12,2 C 86 % 1007,7 hPa 0,0 l/m 0 min 0 min 0 W/m 12,9 km/h (3 Bft) 95,74 %
02.07.2023 03:50 16,2 C 15,6 C 12,2 C 86 % 1007,8 hPa 0,0 l/m 0 min 0 min 0 W/m 12,9 km/h (3 Bft) 91,49 %
02.07.2023 03:52 16,2 C 15,6 C 12,2 C 86 % 1007,8 hPa 0,0 l/m 0 min 0 min 0 W/m 12,9 km/h (3 Bft) 95,74 %
02.07.2023 03:54 16,2 C 15,6 C 12,2 C 86 % 1007,8 hPa 0,0 l/m 0 min 0 min 0 W/m 6,4 km/h (2 Bft) 97,83 %
02.07.2023 03:56 16,2 C 15,6 C 12,2 C 86 % 1007,9 hPa 0,0 l/m 0 min 0 min 0 W/m 6,4 km/h (2 Bft) 93,62 %
02.07.2023 03:58 16,2 C 15,6 C 12,2 C 86 % 1007,8 hPa 0,0 l/m 0 min 0 min 0 W/m 9,7 km/h (2 Bft) 95,74 %
02.07.2023 04:00 16,2 C 15,6 C 12,2 C 86 % 1007,9 hPa 0,0 l/m 0 min 0 min 0 W/m 3,2 km/h (1 Bft) 97,87 %
02.07.2023 04:02 16,2 C 15,6 C 12,2 C 86 % 1007,9 hPa 0,0 l/m 0 min 0 min 0 W/m 3,2 km/h (1 Bft) 86,67 %
02.07.2023 04:04 16,2 C 15,6 C 12,2 C 86 % 1007,9 hPa 0,0 l/m 0 min 0 min 0 W/m 6,4 km/h (2 Bft) 95,74 %
02.07.2023 04:06 16,2 C 15,6 C 12,2 C 86 % 1008,0 hPa 0,0 l/m 0 min 0 min 0 W/m 12,9 km/h (3 Bft) 97,96 %
02.07.2023 04:08 16,2 C 15,6 C 12,2 C 86 % 1008,0 hPa 0,0 l/m 0 min 0 min 0 W/m 6,4 km/h (2 Bft) 95,65 %
02.07.2023 04:10 16,2 C 15,6 C 12,2 C 86 % 1008,0 hPa 0,0 l/m 0 min 0 min 0 W/m 6,4 km/h (2 Bft) 97,87 %
02.07.2023 04:12 16,2 C 15,6 C 12,2 C 86 % 1008,1 hPa 0,0 l/m 0 min 0 min 0 W/m 9,7 km/h (2 Bft) 95,74 %
02.07.2023 04:14 16,1 C 15,6 C 12,2 C 87 % 1008,1 hPa 0,0 l/m 0 min 0 min 0 W/m 6,4 km/h (2 Bft) 95,74 %
02.07.2023 04:16 16,1 C 15,6 C 12,2 C 87 % 1008,1 hPa 0,0 l/m 0 min 0 min 0 W/m 6,4 km/h (2 Bft) 97,87 %
02.07.2023 04:18 16,1 C 15,6 C 12,2 C 87 % 1008,0 hPa 0,0 l/m 0 min 0 min 0 W/m 12,9 km/h (3 Bft) 93,62 %
02.07.2023 04:20 16,1 C 15,0 C 12,2 C 87 % 1008,1 hPa 0,0 l/m 0 min 0 min 0 W/m 9,7 km/h (2 Bft) 97,87 %
02.07.2023 04:22 16,1 C 15,6 C 12,2 C 87 % 1008,1 hPa 0,0 l/m 0 min 0 min 0 W/m 6,4 km/h (2 Bft) 97,83 %
02.07.2023 04:24 16,1 C 15,0 C 12,2 C 87 % 1008,1 hPa 0,0 l/m 0 min 0 min 0 W/m 9,7 km/h (2 Bft) 94,74 %
02.07.2023 04:26 16,1 C 15,0 C 12,2 C 87 % 1008,1 hPa 0,0 l/m 0 min 0 min 0 W/m 12,9 km/h (3 Bft) 95,92 %
02.07.2023 04:28 16,1 C 15,6 C 12,2 C 87 % 1008,2 hPa 0,0 l/m 0 min 0 min 0 W/m 12,9 km/h (3 Bft) 95,74 %
02.07.2023 04:30 16,1 C 15,0 C 12,2 C 87 % 1008,2 hPa 0,0 l/m 0 min 0 min 0 W/m 12,9 km/h (3 Bft) 81,25 %
02.07.2023 04:32 16,1 C 15,6 C 12,2 C 87 % 1008,2 hPa 0,0 l/m 0 min 0 min 0 W/m 16,1 km/h (3 Bft) 63,16 %
02.07.2023 04:34 16,0 C 15,6 C 12,2 C 87 % 1008,1 hPa 0,0 l/m 0 min 0 min 0 W/m 12,9 km/h (3 Bft) 97,87 %
02.07.2023 04:36 16,0 C 15,6 C 12,2 C 87 % 1008,1 hPa 0,0 l/m 0 min 0 min 0 W/m 12,9 km/h (3 Bft) 95,74 %
02.07.2023 04:38 16,0 C 15,6 C 12,2 C 87 % 1008,1 hPa 0,0 l/m 0 min 0 min 0 W/m 16,1 km/h (3 Bft) 95,65 %
02.07.2023 04:40 16,1 C 15,6 C 12,2 C 87 % 1008,2 hPa 0,0 l/m 0 min 0 min 0 W/m 9,7 km/h (2 Bft) 97,87 %
02.07.2023 04:42 16,0 C 15,6 C 12,2 C 87 % 1008,2 hPa 0,0 l/m 0 min 0 min 0 W/m 16,1 km/h (3 Bft) 97,87 %
02.07.2023 04:44 16,1 C 15,6 C 12,2 C 87 % 1008,2 hPa 0,0 l/m 0 min 0 min 0 W/m 6,4 km/h (2 Bft) 97,87 %
02.07.2023 04:46 16,1 C 15,6 C 12,2 C 87 % 1008,2 hPa 0,0 l/m 0 min 0 min 0 W/m 9,7 km/h (2 Bft) 93,62 %
02.07.2023 04:48 16,1 C 15,6 C 12,2 C 87 % 1008,2 hPa 0,0 l/m 0 min 0 min 0 W/m 12,9 km/h (3 Bft) 95,74 %
02.07.2023 04:50 16,1 C 15,6 C 12,2 C 87 % 1008,2 hPa 0,0 l/m 0 min 0 min 0 W/m 12,9 km/h (3 Bft) 97,87 %
02.07.2023 04:52 16,1 C 15,6 C 12,2 C 87 % 1008,2 hPa 0,0 l/m 0 min 0 min 0 W/m 6,4 km/h (2 Bft) 97,83 %
02.07.2023 04:54 16,1 C 15,6 C 12,2 C 87 % 1008,2 hPa 0,0 l/m 0 min 0 min 0 W/m 3,2 km/h (1 Bft) 97,87 %
02.07.2023 04:56 16,1 C 15,6 C 12,2 C 87 % 1008,2 hPa 0,0 l/m 0 min 0 min 0 W/m 16,1 km/h (3 Bft) 97,87 %
02.07.2023 04:58 16,1 C 15,6 C 12,2 C 87 % 1008,2 hPa 0,0 l/m 0 min 0 min 0 W/m 6,4 km/h (2 Bft) 95,74 %
02.07.2023 05:00 16,1 C 15,6 C 12,2 C 87 % 1008,2 hPa 0,0 l/m 0 min 0 min 0 W/m 12,9 km/h (3 Bft) 97,87 %
02.07.2023 05:02 16,0 C 15,0 C 12,2 C 87 % 1008,2 hPa 0,0 l/m 0 min 0 min 0 W/m 6,4 km/h (2 Bft) 97,87 %
02.07.2023 05:06 16,0 C 15,0 C 12,2 C 87 % 1008,2 hPa 0,0 l/m 0 min 0 min 0 W/m 12,9 km/h (3 Bft) 100,00 %
02.07.2023 05:08 16,0 C 15,0 C 12,2 C 87 % 1008,3 hPa 0,0 l/m 0 min 0 min 0 W/m 6,4 km/h (2 Bft) 97,92 %
02.07.2023 05:10 16,0 C 15,0 C 12,2 C 87 % 1008,2 hPa 0,0 l/m 0 min 0 min 0 W/m 12,9 km/h (3 Bft) 100,00 %
02.07.2023 05:12 16,0 C 15,0 C 12,2 C 87 % 1008,2 hPa 0,0 l/m 0 min 0 min 0 W/m 12,9 km/h (3 Bft) 100,00 %
02.07.2023 05:14 16,0 C 15,0 C 12,2 C 87 % 1008,3 hPa 0,0 l/m 0 min 0 min 0 W/m 6,4 km/h (2 Bft) 97,87 %
02.07.2023 05:16 15,9 C 15,0 C 12,2 C 87 % 1008,3 hPa 0,0 l/m 0 min 0 min 0 W/m 6,4 km/h (2 Bft) 97,87 %
02.07.2023 05:18 15,9 C 15,0 C 12,2 C 87 % 1008,3 hPa 0,0 l/m 0 min 0 min 0 W/m 16,1 km/h (3 Bft) 97,87 %
02.07.2023 05:20 15,9 C 15,0 C 12,2 C 87 % 1008,3 hPa 0,0 l/m 0 min 0 min 0 W/m 6,4 km/h (2 Bft) 97,87 %
02.07.2023 05:22 16,0 C 15,0 C 12,2 C 87 % 1008,3 hPa 0,0 l/m 0 min 0 min 0 W/m 6,4 km/h (2 Bft) 97,87 %
02.07.2023 05:24 15,9 C 15,0 C 12,2 C 87 % 1008,3 hPa 0,0 l/m 0 min 0 min 0 W/m 12,9 km/h (3 Bft) 97,87 %
02.07.2023 05:26 15,9 C 15,0 C 12,2 C 87 % 1008,3 hPa 0,0 l/m 0 min 0 min 0 W/m 12,9 km/h (3 Bft) 95,74 %
02.07.2023 05:28 15,9 C 15,0 C 12,2 C 87 % 1008,4 hPa 0,0 l/m 0 min 0 min 0 W/m 9,7 km/h (2 Bft) 97,83 %
02.07.2023 05:30 15,9 C 15,0 C 12,2 C 87 % 1008,4 hPa 0,0 l/m 0 min 0 min 0 W/m 16,1 km/h (3 Bft) 95,74 %
02.07.2023 05:32 15,9 C 15,0 C 12,2 C 87 % 1008,4 hPa 0,0 l/m 0 min 0 min 0 W/m 6,4 km/h (2 Bft) 95,74 %
02.07.2023 05:34 15,9 C 15,0 C 12,2 C 87 % 1008,4 hPa 0,0 l/m 0 min 0 min 0 W/m 9,7 km/h (2 Bft) 97,87 %
02.07.2023 05:36 15,9 C 15,0 C 12,2 C 87 % 1008,5 hPa 0,0 l/m 0 min 0 min 0 W/m 9,7 km/h (2 Bft) 95,74 %
02.07.2023 05:38 15,9 C 15,0 C 12,2 C 87 % 1008,5 hPa 0,0 l/m 0 min 0 min 0 W/m 16,1 km/h (3 Bft) 97,87 %
02.07.2023 05:40 15,9 C 15,0 C 12,2 C 87 % 1008,5 hPa 0,0 l/m 0 min 0 min 2 W/m 6,4 km/h (2 Bft) 97,83 %
02.07.2023 05:42 15,9 C 15,6 C 12,2 C 87 % 1008,5 hPa 0,0 l/m 0 min 0 min 5 W/m 6,4 km/h (2 Bft) 100,00 %
02.07.2023 05:44 15,9 C 15,6 C 12,2 C 87 % 1008,6 hPa 0,0 l/m 0 min 0 min 6 W/m 6,4 km/h (2 Bft) 97,87 %
02.07.2023 05:46 15,9 C 15,0 C 12,2 C 87 % 1008,6 hPa 0,0 l/m 0 min 0 min 7 W/m 9,7 km/h (2 Bft) 100,00 %
02.07.2023 05:48 15,9 C 15,0 C 12,2 C 87 % 1008,6 hPa 0,0 l/m 0 min 0 min 9 W/m 12,9 km/h (3 Bft) 100,00 %
02.07.2023 05:50 15,9 C 15,0 C 12,2 C 87 % 1008,6 hPa 0,0 l/m 0 min 0 min 11 W/m 9,7 km/h (2 Bft) 100,00 %
02.07.2023 05:52 15,9 C 15,0 C 12,2 C 87 % 1008,6 hPa 0,0 l/m 0 min 0 min 13 W/m 19,3 km/h (3 Bft) 100,00 %
02.07.2023 05:54 15,9 C 15,0 C 12,2 C 87 % 1008,6 hPa 0,0 l/m 0 min 0 min 14 W/m 16,1 km/h (3 Bft) 100,00 %
02.07.2023 05:56 15,9 C 15,0 C 12,2 C 87 % 1008,6 hPa 0,0 l/m 0 min 0 min 12 W/m 9,7 km/h (2 Bft) 100,00 %
02.07.2023 05:58 15,9 C 15,0 C 12,2 C 87 % 1008,6 hPa 0,0 l/m 0 min 0 min 12 W/m 12,9 km/h (3 Bft) 100,00 %
02.07.2023 06:00 15,9 C 15,0 C 12,2 C 87 % 1008,7 hPa 0,0 l/m 0 min 0 min 13 W/m 9,7 km/h (2 Bft) 100,00 %
02.07.2023 06:02 15,9 C 15,0 C 12,2 C 87 % 1008,7 hPa 0,0 l/m 0 min 0 min 15 W/m 12,9 km/h (3 Bft) 100,00 %
02.07.2023 06:04 15,9 C 15,0 C 12,2 C 87 % 1008,7 hPa 0,0 l/m 0 min 0 min 18 W/m 12,9 km/h (3 Bft) 100,00 %
02.07.2023 06:08 15,9 C 15,0 C 12,2 C 87 % 1008,7 hPa 0,0 l/m 0 min 0 min 18 W/m 12,9 km/h (3 Bft) 100,00 %
02.07.2023 06:10 15,9 C 15,0 C 12,2 C 88 % 1008,8 hPa 0,0 l/m 0 min 0 min 18 W/m 6,4 km/h (2 Bft) 100,00 %
02.07.2023 06:12 15,9 C 15,0 C 12,2 C 88 % 1008,8 hPa 0,0 l/m 0 min 0 min 20 W/m 6,4 km/h (2 Bft) 97,87 %
02.07.2023 06:14 15,9 C 15,0 C 12,2 C 88 % 1008,8 hPa 0,0 l/m 0 min 0 min 22 W/m 16,1 km/h (3 Bft) 100,00 %
02.07.2023 06:16 15,9 C 15,0 C 12,2 C 88 % 1008,8 hPa 0,0 l/m 0 min 0 min 21 W/m 6,4 km/h (2 Bft) 100,00 %
02.07.2023 06:18 15,9 C 15,0 C 12,2 C 88 % 1008,8 hPa 0,0 l/m 0 min 0 min 23 W/m 12,9 km/h (3 Bft) 100,00 %
02.07.2023 06:20 15,9 C 15,0 C 12,2 C 88 % 1008,9 hPa 0,0 l/m 0 min 0 min 25 W/m 9,7 km/h (2 Bft) 100,00 %
02.07.2023 06:22 15,9 C 15,6 C 12,2 C 88 % 1008,9 hPa 0,0 l/m 0 min 0 min 26 W/m 6,4 km/h (2 Bft) 100,00 %
02.07.2023 06:24 15,9 C 15,0 C 12,2 C 88 % 1008,9 hPa 0,0 l/m 0 min 0 min 30 W/m 6,4 km/h (2 Bft) 97,87 %
02.07.2023 06:26 15,9 C 15,6 C 12,2 C 88 % 1008,9 hPa 0,0 l/m 0 min 0 min 33 W/m 6,4 km/h (2 Bft) 97,87 %
02.07.2023 06:28 15,9 C 15,6 C 12,2 C 88 % 1009,0 hPa 0,0 l/m 0 min 0 min 31 W/m 16,1 km/h (3 Bft) 97,87 %
02.07.2023 06:30 15,9 C 15,6 C 12,2 C 88 % 1009,0 hPa 0,0 l/m 0 min 0 min 33 W/m 9,7 km/h (2 Bft) 100,00 %
02.07.2023 06:32 15,9 C 15,0 C 12,2 C 88 % 1009,0 hPa 0,0 l/m 0 min 0 min 35 W/m 12,9 km/h (3 Bft) 100,00 %
02.07.2023 06:34 15,9 C 15,0 C 12,2 C 88 % 1009,0 hPa 0,0 l/m 0 min 0 min 38 W/m 12,9 km/h (3 Bft) 100,00 %
02.07.2023 06:36 15,9 C 15,6 C 12,2 C 88 % 1009,0 hPa 0,0 l/m 0 min 0 min 42 W/m 9,7 km/h (2 Bft) 97,87 %
02.07.2023 06:38 15,9 C 15,6 C 12,2 C 88 % 1009,0 hPa 0,0 l/m 0 min 0 min 46 W/m 12,9 km/h (3 Bft) 97,87 %
02.07.2023 06:40 15,9 C 15,6 C 12,2 C 88 % 1009,1 hPa 0,0 l/m 0 min 0 min 47 W/m 12,9 km/h (3 Bft) 97,87 %
02.07.2023 06:42 15,9 C 15,6 C 12,2 C 88 % 1009,1 hPa 0,0 l/m 0 min 0 min 51 W/m 6,4 km/h (2 Bft) 95,74 %
02.07.2023 06:44 15,9 C 15,6 C 12,2 C 88 % 1009,1 hPa 0,0 l/m 0 min 0 min 55 W/m 6,4 km/h (2 Bft) 95,74 %
02.07.2023 06:46 15,9 C 15,6 C 12,2 C 88 % 1009,2 hPa 0,0 l/m 0 min 0 min 56 W/m 6,4 km/h (2 Bft) 97,83 %
02.07.2023 06:48 15,9 C 15,6 C 12,2 C 88 % 1009,2 hPa 0,0 l/m 0 min 0 min 55 W/m 12,9 km/h (3 Bft) 95,74 %
02.07.2023 06:50 15,9 C 15,6 C 12,2 C 88 % 1009,2 hPa 0,0 l/m 0 min 0 min 59 W/m 6,4 km/h (2 Bft) 97,87 %
02.07.2023 06:52 15,9 C 15,6 C 12,2 C 88 % 1009,2 hPa 0,0 l/m 0 min 0 min 61 W/m 12,9 km/h (3 Bft) 97,87 %
02.07.2023 06:54 16,0 C 15,6 C 12,2 C 88 % 1009,2 hPa 0,0 l/m 0 min 0 min 60 W/m 9,7 km/h (2 Bft) 93,62 %
02.07.2023 06:56 16,0 C 15,6 C 12,2 C 88 % 1009,2 hPa 0,0 l/m 0 min 0 min 53 W/m 6,4 km/h (2 Bft) 95,74 %
02.07.2023 06:58 16,0 C 15,6 C 12,2 C 88 % 1009,2 hPa 0,0 l/m 0 min 0 min 55 W/m 16,1 km/h (3 Bft) 93,62 %
02.07.2023 07:00 16,1 C 15,6 C 12,2 C 88 % 1009,2 hPa 0,0 l/m 0 min 0 min 61 W/m 12,9 km/h (3 Bft) 95,65 %
02.07.2023 07:02 16,1 C 15,6 C 12,2 C 88 % 1009,2 hPa 0,0 l/m 0 min 0 min 53 W/m 6,4 km/h (2 Bft) 97,87 %
02.07.2023 07:04 16,1 C 15,6 C 12,2 C 88 % 1009,2 hPa 0,0 l/m 0 min 0 min 51 W/m 6,4 km/h (2 Bft) 91,84 %
02.07.2023 07:06 16,1 C 15,6 C 12,2 C 88 % 1009,3 hPa 0,0 l/m 0 min 0 min 58 W/m 9,7 km/h (2 Bft) 93,62 %
02.07.2023 07:08 16,1 C 15,6 C 12,8 C 88 % 1009,3 hPa 0,0 l/m 0 min 0 min 53 W/m 12,9 km/h (3 Bft) 93,62 %
02.07.2023 07:10 16,1 C 15,6 C 12,8 C 88 % 1009,3 hPa 0,0 l/m 0 min 0 min 64 W/m 9,7 km/h (2 Bft) 91,49 %
02.07.2023 07:12 16,1 C 15,6 C 12,8 C 88 % 1009,4 hPa 0,0 l/m 0 min 0 min 72 W/m 9,7 km/h (2 Bft) 91,43 %
02.07.2023 07:14 16,2 C 15,6 C 12,8 C 88 % 1009,3 hPa 0,0 l/m 0 min 0 min 74 W/m 3,2 km/h (1 Bft) 89,66 %
02.07.2023 07:16 16,2 C 15,6 C 12,8 C 88 % 1009,4 hPa 0,0 l/m 0 min 0 min 74 W/m 9,7 km/h (2 Bft) 91,49 %
02.07.2023 07:18 16,2 C 16,1 C 12,8 C 88 % 1009,4 hPa 0,0 l/m 0 min 0 min 80 W/m 3,2 km/h (1 Bft) 93,62 %
02.07.2023 07:20 16,2 C 16,1 C 12,8 C 88 % 1009,4 hPa 0,0 l/m 0 min 0 min 92 W/m 6,4 km/h (2 Bft) 93,62 %
02.07.2023 07:22 16,2 C 16,1 C 12,8 C 88 % 1009,4 hPa 0,0 l/m 0 min 0 min 96 W/m 9,7 km/h (2 Bft) 91,43 %
02.07.2023 07:24 16,3 C 16,1 C 12,8 C 88 % 1009,4 hPa 0,0 l/m 0 min 0 min 96 W/m 3,2 km/h (1 Bft) 93,22 %
02.07.2023 07:26 16,3 C 16,1 C 12,8 C 88 % 1009,5 hPa 0,0 l/m 0 min 0 min 96 W/m 12,9 km/h (3 Bft) 91,30 %
02.07.2023 07:28 16,3 C 16,1 C 12,8 C 88 % 1009,5 hPa 0,0 l/m 0 min 0 min 100 W/m 12,9 km/h (3 Bft) 91,67 %
02.07.2023 07:30 16,3 C 16,1 C 12,8 C 88 % 1009,5 hPa 0,0 l/m 0 min 0 min 105 W/m 9,7 km/h (2 Bft) 91,30 %
02.07.2023 07:32 16,3 C 16,1 C 12,8 C 87 % 1009,5 hPa 0,0 l/m 0 min 0 min 111 W/m 19,3 km/h (3 Bft) 93,22 %
02.07.2023 07:34 16,4 C 16,1 C 12,8 C 87 % 1009,6 hPa 0,0 l/m 0 min 0 min 106 W/m 6,4 km/h (2 Bft) 94,29 %
02.07.2023 07:36 16,4 C 16,1 C 12,8 C 87 % 1009,6 hPa 0,0 l/m 0 min 0 min 112 W/m 6,4 km/h (2 Bft) 91,49 %
02.07.2023 07:38 16,4 C 16,7 C 12,8 C 87 % 1009,6 hPa 0,0 l/m 0 min 0 min 128 W/m 6,4 km/h (2 Bft) 95,74 %
02.07.2023 07:40 16,5 C 16,7 C 12,8 C 87 % 1009,6 hPa 0,0 l/m 0 min 0 min 132 W/m 16,1 km/h (3 Bft) 97,87 %
02.07.2023 07:42 16,5 C 16,7 C 12,8 C 87 % 1009,6 hPa 0,0 l/m 0 min 0 min 130 W/m 12,9 km/h (3 Bft) 95,74 %
02.07.2023 07:44 16,6 C 16,7 C 12,8 C 87 % 1009,5 hPa 0,0 l/m 0 min 0 min 142 W/m 12,9 km/h (3 Bft) 97,83 %
02.07.2023 07:46 16,6 C 16,7 C 12,8 C 87 % 1009,6 hPa 0,0 l/m 0 min 0 min 145 W/m 6,4 km/h (2 Bft) 97,87 %
02.07.2023 07:48 16,6 C 16,7 C 12,8 C 87 % 1009,7 hPa 0,0 l/m 0 min 0 min 148 W/m 6,4 km/h (2 Bft) 95,74 %
02.07.2023 07:50 16,7 C 16,7 C 13,3 C 87 % 1009,6 hPa 0,0 l/m 2 min 0 min 162 W/m 16,1 km/h (3 Bft) 97,87 %
02.07.2023 07:52 16,7 C 16,7 C 13,3 C 87 % 1009,6 hPa 0,0 l/m 0 min 0 min 150 W/m 16,1 km/h (3 Bft) 95,74 %
02.07.2023 07:54 16,7 C 16,7 C 13,3 C 86 % 1009,7 hPa 0,0 l/m 0 min 0 min 164 W/m 3,2 km/h (1 Bft) 97,87 %
02.07.2023 07:56 16,8 C 16,7 C 13,3 C 86 % 1009,7 hPa 0,0 l/m 0 min 0 min 144 W/m 12,9 km/h (3 Bft) 100,00 %
02.07.2023 07:58 16,8 C 16,7 C 13,3 C 86 % 1009,7 hPa 0,0 l/m 0 min 0 min 134 W/m 12,9 km/h (3 Bft) 100,00 %
02.07.2023 08:00 16,8 C 16,7 C 13,3 C 86 % 1009,8 hPa 0,0 l/m 0 min 0 min 141 W/m 6,4 km/h (2 Bft) 97,87 %
02.07.2023 08:02 16,8 C 16,7 C 13,3 C 86 % 1009,8 hPa 0,0 l/m 0 min 0 min 154 W/m 12,9 km/h (3 Bft) 100,00 %
02.07.2023 08:04 16,9 C 16,7 C 13,3 C 86 % 1009,8 hPa 0,0 l/m 0 min 0 min 163 W/m 16,1 km/h (3 Bft) 100,00 %
02.07.2023 08:06 16,9 C 17,2 C 13,3 C 85 % 1009,8 hPa 0,0 l/m 0 min 0 min 156 W/m 6,4 km/h (2 Bft) 100,00 %
02.07.2023 08:08 16,9 C 17,2 C 13,3 C 85 % 1009,8 hPa 0,0 l/m 0 min 0 min 151 W/m 6,4 km/h (2 Bft) 100,00 %
02.07.2023 08:10 16,9 C 17,2 C 13,3 C 85 % 1009,9 hPa 0,0 l/m 0 min 0 min 178 W/m 6,4 km/h (2 Bft) 100,00 %
02.07.2023 08:12 17,0 C 17,2 C 13,3 C 85 % 1009,9 hPa 0,0 l/m 2 min 0 min 201 W/m 12,9 km/h (3 Bft) 100,00 %
02.07.2023 08:14 17,1 C 17,2 C 13,3 C 85 % 1009,9 hPa 0,0 l/m 2 min 0 min 198 W/m 12,9 km/h (3 Bft) 100,00 %
02.07.2023 08:16 17,1 C 17,2 C 13,3 C 85 % 1009,9 hPa 0,0 l/m 0 min 0 min 164 W/m 12,9 km/h (3 Bft) 100,00 %
02.07.2023 08:18 17,1 C 17,2 C 13,3 C 85 % 1009,9 hPa 0,0 l/m 0 min 0 min 148 W/m 6,4 km/h (2 Bft) 100,00 %
02.07.2023 08:20 17,1 C 17,2 C 13,3 C 85 % 1010,0 hPa 0,0 l/m 0 min 0 min 132 W/m 19,3 km/h (3 Bft) 100,00 %
02.07.2023 08:22 17,1 C 17,2 C 13,3 C 85 % 1010,0 hPa 0,0 l/m 0 min 0 min 126 W/m 9,7 km/h (2 Bft) 100,00 %
02.07.2023 08:24 17,1 C 17,2 C 13,3 C 85 % 1010,1 hPa 0,0 l/m 0 min 0 min 134 W/m 16,1 km/h (3 Bft) 100,00 %
02.07.2023 08:26 17,1 C 17,8 C 13,3 C 85 % 1010,0 hPa 0,0 l/m 0 min 0 min 159 W/m 9,7 km/h (2 Bft) 100,00 %
02.07.2023 08:28 17,2 C 18,3 C 13,9 C 85 % 1010,0 hPa 0,0 l/m 2 min 0 min 374 W/m 9,7 km/h (2 Bft) 100,00 %
02.07.2023 08:30 17,2 C 18,9 C 14,4 C 85 % 1010,0 hPa 0,0 l/m 2 min 0 min 396 W/m 12,9 km/h (3 Bft) 100,00 %
02.07.2023 08:32 17,3 C 20,0 C 14,4 C 85 % 1010,0 hPa 0,0 l/m 2 min 0 min 416 W/m 9,7 km/h (2 Bft) 97,87 %
02.07.2023 08:34 17,4 C 20,0 C 15,0 C 84 % 1010,0 hPa 0,0 l/m 2 min 0 min 419 W/m 6,4 km/h (2 Bft) 100,00 %
02.07.2023 08:35 17,4 C 20,0 C 15,0 C 84 % 1010,1 hPa 0,0 l/m 1 min 0 min 366 W/m 12,9 km/h (3 Bft) 100,00 %
02.07.2023 08:42 17,7 C 20,0 C 15,0 C 82 % 1010,1 hPa 0,0 l/m 0 min 0 min 218 W/m 9,7 km/h (2 Bft) 100,00 %
02.07.2023 08:44 17,8 C 20,0 C 15,6 C 82 % 1010,1 hPa 0,0 l/m 0 min 0 min 218 W/m 16,1 km/h (3 Bft) 100,00 %
02.07.2023 08:46 17,8 C 19,4 C 15,6 C 82 % 1010,1 hPa 0,0 l/m 0 min 0 min 202 W/m 12,9 km/h (3 Bft) 100,00 %
02.07.2023 08:48 17,8 C 19,4 C 15,0 C 81 % 1010,1 hPa 0,0 l/m 0 min 0 min 217 W/m 32,2 km/h (5 Bft) 100,00 %
02.07.2023 08:50 17,8 C 19,4 C 15,0 C 80 % 1010,1 hPa 0,0 l/m 2 min 0 min 245 W/m 19,3 km/h (3 Bft) 100,00 %
02.07.2023 08:52 17,8 C 18,9 C 15,0 C 80 % 1010,2 hPa 0,0 l/m 0 min 0 min 228 W/m 12,9 km/h (3 Bft) 97,87 %
02.07.2023 08:54 17,8 C 18,9 C 15,0 C 81 % 1010,2 hPa 0,0 l/m 0 min 0 min 195 W/m 16,1 km/h (3 Bft) 100,00 %
02.07.2023 08:56 17,9 C 18,9 C 15,0 C 81 % 1010,2 hPa 0,0 l/m 0 min 0 min 195 W/m 12,9 km/h (3 Bft) 100,00 %
02.07.2023 08:58 17,9 C 19,4 C 15,0 C 80 % 1010,3 hPa 0,0 l/m 2 min 0 min 243 W/m 12,9 km/h (3 Bft) 100,00 %
02.07.2023 09:00 17,9 C 20,6 C 15,6 C 80 % 1010,3 hPa 0,0 l/m 2 min 0 min 334 W/m 12,9 km/h (3 Bft) 97,87 %
02.07.2023 09:02 17,9 C 20,6 C 15,6 C 80 % 1010,3 hPa 0,0 l/m 2 min 0 min 340 W/m 12,9 km/h (3 Bft) 97,83 %
02.07.2023 09:04 17,9 C 21,1 C 15,6 C 77 % 1010,3 hPa 0,0 l/m 2 min 0 min 394 W/m 22,5 km/h (4 Bft) 100,00 %
02.07.2023 09:06 18,1 C 21,7 C 16,1 C 78 % 1010,3 hPa 0,0 l/m 2 min 0 min 462 W/m 19,3 km/h (3 Bft) 95,00 %
02.07.2023 09:08 18,2 C 22,2 C 16,1 C 77 % 1010,3 hPa 0,0 l/m 2 min 0 min 468 W/m 6,4 km/h (2 Bft) 97,14 %
02.07.2023 09:10 18,3 C 22,8 C 16,7 C 76 % 1010,4 hPa 0,0 l/m 2 min 0 min 477 W/m 6,4 km/h (2 Bft) 98,00 %
02.07.2023 09:12 18,4 C 23,3 C 17,2 C 76 % 1010,4 hPa 0,0 l/m 2 min 0 min 494 W/m 12,9 km/h (3 Bft) 95,74 %
02.07.2023 09:14 18,6 C 23,3 C 17,2 C 75 % 1010,4 hPa 0,0 l/m 2 min 0 min 510 W/m 12,9 km/h (3 Bft) 97,83 %
02.07.2023 09:16 18,7 C 22,8 C 17,2 C 74 % 1010,4 hPa 0,0 l/m 2 min 0 min 571 W/m 19,3 km/h (3 Bft) 97,87 %
02.07.2023 09:18 18,8 C 22,8 C 17,2 C 74 % 1010,4 hPa 0,0 l/m 2 min 0 min 561 W/m 29,0 km/h (5 Bft) 95,74 %
02.07.2023 09:20 18,8 C 21,7 C 17,2 C 73 % 1010,3 hPa 0,0 l/m 2 min 0 min 418 W/m 12,9 km/h (3 Bft) 95,74 %
02.07.2023 09:22 18,9 C 21,7 C 17,2 C 73 % 1010,3 hPa 0,0 l/m 2 min 0 min 384 W/m 16,1 km/h (3 Bft) 93,62 %
02.07.2023 09:24 18,9 C 21,7 C 17,2 C 72 % 1010,4 hPa 0,0 l/m 2 min 0 min 571 W/m 19,3 km/h (3 Bft) 95,74 %
02.07.2023 09:26 19,1 C 22,2 C 17,2 C 72 % 1010,4 hPa 0,0 l/m 2 min 0 min 624 W/m 12,9 km/h (3 Bft) 95,65 %
02.07.2023 09:28 19,1 C 22,2 C 17,2 C 72 % 1010,4 hPa 0,0 l/m 2 min 0 min 552 W/m 22,5 km/h (4 Bft) 95,74 %
02.07.2023 09:30 19,2 C 21,1 C 17,2 C 70 % 1010,4 hPa 0,0 l/m 0 min 0 min 253 W/m 22,5 km/h (4 Bft) 93,62 %
02.07.2023 09:32 19,2 C 21,1 C 17,2 C 70 % 1010,4 hPa 0,0 l/m 0 min 0 min 239 W/m 22,5 km/h (4 Bft) 95,74 %
02.07.2023 09:34 19,2 C 20,0 C 16,7 C 70 % 1010,5 hPa 0,0 l/m 0 min 0 min 203 W/m 25,7 km/h (4 Bft) 93,62 %
02.07.2023 09:36 19,1 C 19,4 C 16,1 C 69 % 1010,5 hPa 0,0 l/m 0 min 0 min 136 W/m 19,3 km/h (3 Bft) 95,83 %
02.07.2023 09:38 18,9 C 18,9 C 15,6 C 68 % 1010,5 hPa 0,0 l/m 0 min 0 min 111 W/m 22,5 km/h (4 Bft) 95,74 %
02.07.2023 09:40 18,8 C 18,3 C 15,6 C 68 % 1010,5 hPa 0,0 l/m 0 min 0 min 128 W/m 12,9 km/h (3 Bft) 97,14 %
02.07.2023 09:42 18,7 C 18,3 C 15,0 C 68 % 1010,5 hPa 0,0 l/m 0 min 0 min 150 W/m 19,3 km/h (3 Bft) 97,87 %
02.07.2023 09:44 18,7 C 18,3 C 15,0 C 69 % 1010,5 hPa 0,0 l/m 0 min 0 min 198 W/m 12,9 km/h (3 Bft) 95,65 %
02.07.2023 09:46 18,7 C 18,3 C 15,0 C 70 % 1010,5 hPa 0,0 l/m 0 min 0 min 231 W/m 9,7 km/h (2 Bft) 97,87 %
02.07.2023 09:48 18,7 C 18,9 C 15,0 C 71 % 1010,6 hPa 0,0 l/m 0 min 0 min 235 W/m 16,1 km/h (3 Bft) 97,87 %
02.07.2023 09:50 18,6 C 19,4 C 15,6 C 71 % 1010,6 hPa 0,0 l/m 0 min 0 min 246 W/m 19,3 km/h (3 Bft) 97,87 %
02.07.2023 09:56 18,7 C 18,9 C 15,6 C 70 % 1010,6 hPa 0,0 l/m 0 min 0 min 209 W/m 6,4 km/h (2 Bft) 100,00 %
02.07.2023 09:58 18,7 C 18,9 C 15,6 C 70 % 1010,6 hPa 0,0 l/m 0 min 0 min 185 W/m 12,9 km/h (3 Bft) 96,77 %
02.07.2023 10:00 18,6 C 18,3 C 15,0 C 70 % 1010,7 hPa 0,0 l/m 0 min 0 min 158 W/m 12,9 km/h (3 Bft) 97,87 %
02.07.2023 10:02 18,6 C 18,3 C 15,0 C 70 % 1010,6 hPa 0,0 l/m 0 min 0 min 162 W/m 16,1 km/h (3 Bft) 100,00 %
02.07.2023 10:04 18,6 C 18,3 C 15,0 C 71 % 1010,7 hPa 0,0 l/m 0 min 0 min 169 W/m 9,7 km/h (2 Bft) 100,00 %
02.07.2023 10:06 18,6 C 18,3 C 15,0 C 71 % 1010,7 hPa 0,0 l/m 0 min 0 min 166 W/m 9,7 km/h (2 Bft) 100,00 %
02.07.2023 10:08 18,5 C 18,3 C 15,0 C 72 % 1010,7 hPa 0,0 l/m 0 min 0 min 162 W/m 16,1 km/h (3 Bft) 94,29 %
02.07.2023 10:10 18,5 C 18,3 C 15,0 C 72 % 1010,9 hPa 0,0 l/m 0 min 0 min 130 W/m 16,1 km/h (3 Bft) 100,00 %
02.07.2023 10:12 18,5 C 17,8 C 15,0 C 72 % 1010,7 hPa 0,0 l/m 0 min 0 min 102 W/m 6,4 km/h (2 Bft) 97,83 %
02.07.2023 10:14 18,5 C 17,8 C 14,4 C 73 % 1010,8 hPa 0,0 l/m 0 min 0 min 107 W/m 12,9 km/h (3 Bft) 97,87 %
02.07.2023 10:16 18,4 C 17,8 C 14,4 C 73 % 1010,8 hPa 0,0 l/m 0 min 0 min 143 W/m 19,3 km/h (3 Bft) 100,00 %
02.07.2023 10:18 18,3 C 17,8 C 14,4 C 72 % 1010,8 hPa 0,0 l/m 0 min 0 min 166 W/m 19,3 km/h (3 Bft) 97,87 %
02.07.2023 10:20 18,3 C 17,8 C 14,4 C 71 % 1010,8 hPa 0,0 l/m 0 min 0 min 178 W/m 19,3 km/h (3 Bft) 100,00 %
02.07.2023 10:22 18,3 C 18,3 C 15,0 C 71 % 1010,8 hPa 0,0 l/m 0 min 0 min 220 W/m 16,1 km/h (3 Bft) 100,00 %
02.07.2023 10:24 18,3 C 18,3 C 15,0 C 71 % 1010,9 hPa 0,0 l/m 0 min 0 min 262 W/m 12,9 km/h (3 Bft) 97,87 %
02.07.2023 10:26 18,3 C 18,3 C 15,0 C 71 % 1010,9 hPa 0,0 l/m 0 min 0 min 280 W/m 16,1 km/h (3 Bft) 100,00 %
02.07.2023 10:28 18,4 C 18,9 C 15,0 C 71 % 1011,0 hPa 0,0 l/m 0 min 0 min 265 W/m 16,1 km/h (3 Bft) 97,87 %
02.07.2023 10:30 18,4 C 18,9 C 15,0 C 70 % 1011,0 hPa 0,0 l/m 0 min 0 min 248 W/m 12,9 km/h (3 Bft) 100,00 %
02.07.2023 10:32 18,4 C 18,9 C 15,0 C 70 % 1010,9 hPa 0,0 l/m 0 min 0 min 227 W/m 16,1 km/h (3 Bft) 100,00 %
02.07.2023 10:34 18,4 C 18,9 C 15,0 C 70 % 1010,9 hPa 0,0 l/m 0 min 0 min 242 W/m 12,9 km/h (3 Bft) 100,00 %
02.07.2023 10:36 18,4 C 18,9 C 15,0 C 69 % 1010,9 hPa 0,0 l/m 0 min 0 min 219 W/m 16,1 km/h (3 Bft) 97,87 %
02.07.2023 10:38 18,5 C 18,3 C 15,0 C 69 % 1011,0 hPa 0,0 l/m 0 min 0 min 246 W/m 19,3 km/h (3 Bft) 100,00 %
02.07.2023 10:40 18,5 C 18,3 C 15,0 C 69 % 1011,0 hPa 0,0 l/m 0 min 0 min 210 W/m 12,9 km/h (3 Bft) 100,00 %
02.07.2023 10:42 18,5 C 18,3 C 15,0 C 69 % 1010,9 hPa 0,0 l/m 0 min 0 min 176 W/m 9,7 km/h (2 Bft) 100,00 %
02.07.2023 10:44 18,6 C 18,3 C 15,0 C 69 % 1011,0 hPa 0,0 l/m 0 min 0 min 155 W/m 9,7 km/h (2 Bft) 100,00 %
02.07.2023 10:46 18,6 C 18,3 C 15,0 C 69 % 1011,0 hPa 0,0 l/m 0 min 0 min 138 W/m 12,9 km/h (3 Bft) 95,74 %
02.07.2023 10:48 18,5 C 18,3 C 15,0 C 69 % 1011,1 hPa 0,0 l/m 0 min 0 min 143 W/m 12,9 km/h (3 Bft) 97,87 %
02.07.2023 10:50 18,5 C 18,3 C 15,0 C 68 % 1011,0 hPa 0,0 l/m 0 min 0 min 196 W/m 9,7 km/h (2 Bft) 97,87 %
02.07.2023 10:52 18,5 C 18,3 C 15,0 C 68 % 1011,1 hPa 0,0 l/m 0 min 0 min 280 W/m 22,5 km/h (4 Bft) 97,83 %
02.07.2023 10:54 18,5 C 18,9 C 15,6 C 68 % 1011,0 hPa 0,0 l/m 0 min 0 min 283 W/m 19,3 km/h (3 Bft) 97,87 %
02.07.2023 10:56 18,5 C 18,9 C 15,6 C 68 % 1011,0 hPa 0,0 l/m 0 min 0 min 277 W/m 25,7 km/h (4 Bft) 97,87 %
02.07.2023 10:58 18,6 C 18,9 C 15,6 C 68 % 1011,0 hPa 0,0 l/m 0 min 0 min 271 W/m 22,5 km/h (4 Bft) 95,74 %
02.07.2023 11:00 18,6 C 18,9 C 15,6 C 68 % 1011,1 hPa 0,0 l/m 0 min 0 min 263 W/m 19,3 km/h (3 Bft) 97,87 %
02.07.2023 11:02 18,6 C 18,9 C 15,6 C 69 % 1011,0 hPa 0,0 l/m 0 min 0 min 264 W/m 9,7 km/h (2 Bft) 95,74 %
02.07.2023 11:04 18,6 C 18,9 C 16,1 C 68 % 1011,0 hPa 0,0 l/m 0 min 0 min 268 W/m 19,3 km/h (3 Bft) 97,92 %
02.07.2023 11:06 18,7 C 18,9 C 15,6 C 68 % 1011,0 hPa 0,0 l/m 0 min 0 min 272 W/m 16,1 km/h (3 Bft) 97,87 %
02.07.2023 11:08 18,7 C 19,4 C 16,1 C 69 % 1011,0 hPa 0,0 l/m 0 min 0 min 251 W/m 16,1 km/h (3 Bft) 95,74 %
02.07.2023 11:10 18,8 C 20,0 C 16,1 C 69 % 1011,0 hPa 0,0 l/m 0 min 0 min 266 W/m 9,7 km/h (2 Bft) 95,74 %
02.07.2023 11:12 19,0 C 20,6 C 16,7 C 70 % 1011,1 hPa 0,0 l/m 2 min 0 min 494 W/m 22,5 km/h (4 Bft) 97,87 %
02.07.2023 11:14 19,2 C 21,7 C 16,7 C 70 % 1011,1 hPa 0,0 l/m 2 min 0 min 710 W/m 12,9 km/h (3 Bft) 95,74 %
02.07.2023 11:16 19,4 C 22,2 C 17,8 C 70 % 1011,0 hPa 0,0 l/m 2 min 0 min 899 W/m 16,1 km/h (3 Bft) 95,74 %
02.07.2023 11:18 19,6 C 23,3 C 17,8 C 70 % 1011,0 hPa 0,0 l/m 2 min 0 min 935 W/m 12,9 km/h (3 Bft) 93,62 %
02.07.2023 11:20 19,8 C 22,2 C 17,8 C 68 % 1011,0 hPa 0,0 l/m 2 min 0 min 608 W/m 16,1 km/h (3 Bft) 95,65 %
02.07.2023 11:22 19,9 C 21,7 C 17,2 C 67 % 1011,0 hPa 0,0 l/m 0 min 0 min 306 W/m 16,1 km/h (3 Bft) 95,74 %
02.07.2023 11:24 19,9 C 20,6 C 16,7 C 67 % 1011,0 hPa 0,0 l/m 0 min 0 min 195 W/m 16,1 km/h (3 Bft) 95,74 %
02.07.2023 11:26 19,8 C 20,0 C 16,7 C 68 % 1011,1 hPa 0,0 l/m 0 min 0 min 125 W/m 12,9 km/h (3 Bft) 95,74 %
02.07.2023 11:28 19,7 C 19,4 C 16,1 C 67 % 1011,1 hPa 0,0 l/m 0 min 0 min 88 W/m 12,9 km/h (3 Bft) 95,74 %
02.07.2023 11:30 19,6 C 18,9 C 15,6 C 68 % 1011,1 hPa 0,0 l/m 0 min 0 min 72 W/m 16,1 km/h (3 Bft) 91,49 %
02.07.2023 11:32 19,4 C 18,3 C 15,6 C 67 % 1011,2 hPa 0,0 l/m 0 min 0 min 48 W/m 16,1 km/h (3 Bft) 95,74 %
02.07.2023 11:34 19,3 C 18,3 C 15,0 C 68 % 1011,2 hPa 0,0 l/m 0 min 0 min 42 W/m 12,9 km/h (3 Bft) 95,65 %
02.07.2023 11:36 19,1 C 17,8 C 15,0 C 68 % 1011,2 hPa 0,0 l/m 0 min 0 min 51 W/m 19,3 km/h (3 Bft) 95,74 %
02.07.2023 11:38 18,9 C 17,8 C 15,0 C 68 % 1011,2 hPa 0,0 l/m 0 min 0 min 75 W/m 16,1 km/h (3 Bft) 95,74 %
02.07.2023 11:40 18,8 C 17,8 C 14,4 C 69 % 1011,2 hPa 0,0 l/m 0 min 0 min 104 W/m 16,1 km/h (3 Bft) 97,87 %
02.07.2023 11:42 18,7 C 17,8 C 14,4 C 69 % 1011,2 hPa 0,0 l/m 0 min 0 min 129 W/m 22,5 km/h (4 Bft) 93,62 %
02.07.2023 11:44 18,6 C 17,8 C 14,4 C 69 % 1011,2 hPa 0,0 l/m 0 min 0 min 167 W/m 12,9 km/h (3 Bft) 97,87 %
02.07.2023 11:46 18,6 C 18,3 C 15,0 C 69 % 1011,2 hPa 0,0 l/m 0 min 0 min 242 W/m 12,9 km/h (3 Bft) 97,87 %
02.07.2023 11:48 18,6 C 18,9 C 15,0 C 70 % 1011,2 hPa 0,0 l/m 0 min 0 min 287 W/m 12,9 km/h (3 Bft) 100,00 %
02.07.2023 11:50 18,6 C 18,9 C 15,0 C 70 % 1011,2 hPa 0,0 l/m 0 min 0 min 292 W/m 12,9 km/h (3 Bft) 95,74 %
02.07.2023 11:52 18,6 C 18,9 C 15,6 C 70 % 1011,2 hPa 0,0 l/m 0 min 0 min 258 W/m 19,3 km/h (3 Bft) 97,87 %
02.07.2023 11:54 18,7 C 20,0 C 16,1 C 70 % 1011,1 hPa 0,0 l/m 0 min 0 min 248 W/m 12,9 km/h (3 Bft) 97,87 %
02.07.2023 11:56 18,9 C 21,7 C 17,2 C 70 % 1011,2 hPa 0,0 l/m 2 min 0 min 851 W/m 12,9 km/h (3 Bft) 97,87 %
02.07.2023 11:58 19,1 C 22,8 C 18,3 C 70 % 1011,2 hPa 0,0 l/m 2 min 0 min 1000 W/m 12,9 km/h (3 Bft) 97,87 %
02.07.2023 12:00 19,4 C 22,2 C 18,3 C 67 % 1011,2 hPa 0,0 l/m 2 min 0 min 954 W/m 22,5 km/h (4 Bft) 97,87 %
02.07.2023 12:02 19,6 C 21,7 C 18,3 C 66 % 1011,2 hPa 0,0 l/m 2 min 0 min 443 W/m 19,3 km/h (3 Bft) 95,65 %
02.07.2023 12:04 19,6 C 21,1 C 17,8 C 66 % 1011,2 hPa 0,0 l/m 0 min 0 min 284 W/m 16,1 km/h (3 Bft) 97,37 %
02.07.2023 12:08 19,6 C 19,4 C 16,7 C 65 % 1011,2 hPa 0,0 l/m 0 min 0 min 161 W/m 16,1 km/h (3 Bft) 96,00 %
02.07.2023 12:10 19,6 C 19,4 C 16,1 C 66 % 1011,2 hPa 0,0 l/m 0 min 0 min 146 W/m 9,7 km/h (2 Bft) 97,87 %
02.07.2023 12:12 19,4 C 18,9 C 16,1 C 66 % 1011,3 hPa 0,0 l/m 0 min 0 min 142 W/m 22,5 km/h (4 Bft) 100,00 %
02.07.2023 12:14 19,3 C 18,9 C 15,6 C 65 % 1011,4 hPa 0,0 l/m 0 min 0 min 145 W/m 12,9 km/h (3 Bft) 97,87 %
02.07.2023 12:16 19,2 C 18,9 C 15,6 C 64 % 1011,4 hPa 0,0 l/m 0 min 0 min 158 W/m 16,1 km/h (3 Bft) 95,74 %
02.07.2023 12:18 19,1 C 18,3 C 15,6 C 63 % 1011,5 hPa 0,0 l/m 0 min 0 min 174 W/m 19,3 km/h (3 Bft) 97,87 %
02.07.2023 12:20 19,1 C 18,3 C 15,0 C 63 % 1011,5 hPa 0,0 l/m 0 min 0 min 182 W/m 16,1 km/h (3 Bft) 97,30 %
02.07.2023 12:22 18,9 C 18,3 C 15,0 C 63 % 1011,5 hPa 0,0 l/m 0 min 0 min 162 W/m 12,9 km/h (3 Bft) 97,87 %
02.07.2023 12:24 18,9 C 18,3 C 15,0 C 64 % 1011,5 hPa 0,0 l/m 0 min 0 min 156 W/m 12,9 km/h (3 Bft) 97,87 %
02.07.2023 12:26 18,9 C 18,3 C 15,0 C 64 % 1011,5 hPa 0,0 l/m 0 min 0 min 165 W/m 12,9 km/h (3 Bft) 96,36 %
02.07.2023 12:28 18,8 C 18,3 C 15,0 C 64 % 1011,5 hPa 0,0 l/m 0 min 0 min 201 W/m 12,9 km/h (3 Bft) 98,00 %
02.07.2023 12:30 18,8 C 18,3 C 15,0 C 64 % 1011,5 hPa 0,0 l/m 0 min 0 min 235 W/m 22,5 km/h (4 Bft) 97,22 %
02.07.2023 12:32 18,8 C 18,3 C 15,0 C 63 % 1011,5 hPa 0,0 l/m 0 min 0 min 248 W/m 16,1 km/h (3 Bft) 97,87 %
02.07.2023 12:34 18,8 C 18,9 C 15,0 C 63 % 1011,5 hPa 0,0 l/m 0 min 0 min 254 W/m 19,3 km/h (3 Bft) 100,00 %
02.07.2023 12:36 18,8 C 18,9 C 15,0 C 63 % 1011,5 hPa 0,0 l/m 0 min 0 min 277 W/m 12,9 km/h (3 Bft) 100,00 %
02.07.2023 12:38 18,8 C 18,9 C 15,6 C 63 % 1011,5 hPa 0,0 l/m 0 min 0 min 326 W/m 12,9 km/h (3 Bft) 97,87 %
02.07.2023 12:40 18,9 C 20,6 C 16,7 C 64 % 1011,4 hPa 0,0 l/m 0 min 0 min 399 W/m 12,9 km/h (3 Bft) 100,00 %
02.07.2023 12:42 19,0 C 21,1 C 17,8 C 64 % 1011,4 hPa 0,0 l/m 2 min 0 min 953 W/m 12,9 km/h (3 Bft) 100,00 %
02.07.2023 12:44 19,2 C 22,8 C 19,4 C 63 % 1011,3 hPa 0,0 l/m 2 min 0 min 969 W/m 12,9 km/h (3 Bft) 50,00 %
02.07.2023 12:46 19,5 C 22,8 C 20,0 C 62 % 1011,3 hPa 0,0 l/m 2 min 0 min 533 W/m 16,1 km/h (3 Bft) 97,87 %
02.07.2023 12:48 19,7 C 23,3 C 21,1 C 61 % 1011,4 hPa 0,0 l/m 2 min 0 min 533 W/m 19,3 km/h (3 Bft) 100,00 %
02.07.2023 12:50 20,0 C 23,9 C 21,7 C 60 % 1011,3 hPa 0,0 l/m 2 min 0 min 1028 W/m 19,3 km/h (3 Bft) 100,00 %
02.07.2023 12:52 20,2 C 23,9 C 21,7 C 61 % 1011,3 hPa 0,0 l/m 2 min 0 min 1025 W/m 19,3 km/h (3 Bft) 100,00 %
02.07.2023 12:54 20,4 C 22,8 C 21,1 C 61 % 1011,3 hPa 0,0 l/m 2 min 0 min 1090 W/m 12,9 km/h (3 Bft) 100,00 %
02.07.2023 12:56 20,6 C 22,2 C 20,0 C 60 % 1011,4 hPa 0,0 l/m 0 min 0 min 415 W/m 16,1 km/h (3 Bft) 100,00 %
02.07.2023 12:58 20,7 C 22,2 C 19,4 C 60 % 1011,3 hPa 0,0 l/m 2 min 0 min 426 W/m 19,3 km/h (3 Bft) 100,00 %
02.07.2023 13:00 20,8 C 23,9 C 20,6 C 59 % 1011,3 hPa 0,0 l/m 2 min 0 min 706 W/m 22,5 km/h (4 Bft) 100,00 %
02.07.2023 13:02 20,9 C 23,9 C 20,6 C 59 % 1011,3 hPa 0,0 l/m 2 min 0 min 1074 W/m 22,5 km/h (4 Bft) 100,00 %
02.07.2023 13:04 21,1 C 24,4 C 21,1 C 59 % 1011,3 hPa 0,0 l/m 2 min 0 min 807 W/m 12,9 km/h (3 Bft) 100,00 %
02.07.2023 13:06 21,1 C 23,3 C 20,6 C 58 % 1011,3 hPa 0,0 l/m 2 min 0 min 681 W/m 22,5 km/h (4 Bft) 100,00 %
02.07.2023 13:08 21,1 C 23,9 C 20,6 C 57 % 1011,3 hPa 0,0 l/m 2 min 0 min 496 W/m 22,5 km/h (4 Bft) 97,87 %
02.07.2023 13:10 21,1 C 24,4 C 20,0 C 57 % 1011,3 hPa 0,0 l/m 2 min 0 min 496 W/m 16,1 km/h (3 Bft) 97,87 %
02.07.2023 13:12 21,3 C 25,6 C 20,0 C 59 % 1011,2 hPa 0,0 l/m 2 min 0 min 978 W/m 12,9 km/h (3 Bft) 97,87 %
02.07.2023 13:14 21,4 C 25,6 C 20,0 C 58 % 1011,3 hPa 0,0 l/m 2 min 0 min 1014 W/m 16,1 km/h (3 Bft) 97,87 %
02.07.2023 13:16 21,6 C 26,1 C 20,0 C 58 % 1011,2 hPa 0,0 l/m 2 min 0 min 1043 W/m 22,5 km/h (4 Bft) 97,87 %
02.07.2023 13:20 21,7 C 23,9 C 20,0 C 57 % 1011,2 hPa 0,0 l/m 4 min 0 min 814 W/m 22,5 km/h (4 Bft) 97,70 %
02.07.2023 13:22 21,7 C 24,4 C 20,0 C 57 % 1011,3 hPa 0,0 l/m 2 min 0 min 602 W/m 16,1 km/h (3 Bft) 97,87 %
02.07.2023 13:24 21,8 C 25,0 C 20,0 C 56 % 1011,3 hPa 0,0 l/m 2 min 0 min 562 W/m 19,3 km/h (3 Bft) 97,87 %
02.07.2023 13:26 21,8 C 25,6 C 20,6 C 56 % 1011,3 hPa 0,0 l/m 2 min 0 min 1174 W/m 25,7 km/h (4 Bft) 97,87 %
02.07.2023 13:28 21,9 C 23,9 C 20,6 C 55 % 1011,3 hPa 0,0 l/m 2 min 0 min 1174 W/m 16,1 km/h (3 Bft) 97,87 %
02.07.2023 13:30 21,9 C 23,3 C 20,0 C 55 % 1011,4 hPa 0,0 l/m 0 min 0 min 420 W/m 25,7 km/h (4 Bft) 97,83 %
02.07.2023 13:32 21,8 C 22,2 C 18,9 C 55 % 1011,4 hPa 0,0 l/m 0 min 0 min 361 W/m 16,1 km/h (3 Bft) 97,87 %
02.07.2023 13:34 21,7 C 21,7 C 18,9 C 54 % 1011,5 hPa 0,0 l/m 0 min 0 min 372 W/m 22,5 km/h (4 Bft) 97,87 %
02.07.2023 13:36 21,4 C 21,7 C 18,3 C 55 % 1011,4 hPa 0,0 l/m 0 min 0 min 388 W/m 19,3 km/h (3 Bft) 97,87 %
02.07.2023 13:38 21,3 C 21,1 C 18,3 C 55 % 1011,4 hPa 0,0 l/m 0 min 0 min 390 W/m 19,3 km/h (3 Bft) 95,74 %
02.07.2023 13:40 21,2 C 21,1 C 17,8 C 56 % 1011,3 hPa 0,0 l/m 0 min 0 min 394 W/m 22,5 km/h (4 Bft) 95,74 %
02.07.2023 13:42 21,2 C 22,2 C 18,3 C 56 % 1011,5 hPa 0,0 l/m 0 min 0 min 406 W/m 22,5 km/h (4 Bft) 97,87 %
02.07.2023 13:44 21,1 C 22,8 C 18,9 C 57 % 1011,4 hPa 0,0 l/m 2 min 0 min 812 W/m 16,1 km/h (3 Bft) 100,00 %
02.07.2023 13:46 21,1 C 22,2 C 18,9 C 57 % 1011,4 hPa 0,0 l/m 2 min 0 min 641 W/m 22,5 km/h (4 Bft) 100,00 %
02.07.2023 13:48 21,1 C 22,8 C 19,4 C 57 % 1011,5 hPa 0,0 l/m 0 min 0 min 386 W/m 16,1 km/h (3 Bft) 100,00 %
02.07.2023 13:50 21,2 C 23,9 C 20,6 C 57 % 1011,4 hPa 0,0 l/m 2 min 0 min 832 W/m 16,1 km/h (3 Bft) 97,87 %
02.07.2023 13:52 21,3 C 25,6 C 22,2 C 58 % 1011,3 hPa 0,0 l/m 2 min 0 min 1026 W/m 22,5 km/h (4 Bft) 97,87 %
02.07.2023 13:54 21,4 C 26,1 C 23,3 C 58 % 1011,6 hPa 0,0 l/m 2 min 0 min 952 W/m 19,3 km/h (3 Bft) 100,00 %
02.07.2023 13:56 21,6 C 26,1 C 23,3 C 57 % 1011,5 hPa 0,0 l/m 2 min 0 min 939 W/m 19,3 km/h (3 Bft) 97,87 %
02.07.2023 13:58 21,7 C 26,1 C 23,3 C 57 % 1011,5 hPa 0,0 l/m 2 min 0 min 956 W/m 29,0 km/h (5 Bft) 100,00 %
02.07.2023 14:00 21,8 C 26,1 C 22,2 C 56 % 1011,4 hPa 0,0 l/m 2 min 0 min 972 W/m 19,3 km/h (3 Bft) 100,00 %
02.07.2023 14:02 21,9 C 26,7 C 21,7 C 56 % 1011,5 hPa 0,0 l/m 2 min 0 min 1010 W/m 22,5 km/h (4 Bft) 100,00 %
02.07.2023 14:04 22,0 C 27,2 C 21,7 C 56 % 1011,4 hPa 0,0 l/m 2 min 0 min 1027 W/m 16,1 km/h (3 Bft) 100,00 %
02.07.2023 14:07 22,3 C 27,2 C 21,1 C 56 % 1011,4 hPa 0,0 l/m 3 min 0 min 1082 W/m 29,0 km/h (5 Bft) 98,59 %
02.07.2023 14:08 22,3 C 26,7 C 21,1 C 55 % 1011,4 hPa 0,0 l/m 1 min 0 min 1111 W/m 19,3 km/h (3 Bft) 100,00 %
02.07.2023 14:12 22,3 C 25,6 C 20,0 C 55 % 1011,3 hPa 0,0 l/m 4 min 0 min 1006 W/m 16,1 km/h (3 Bft) 98,21 %
02.07.2023 14:16 22,3 C 27,2 C 19,4 C 55 % 1011,3 hPa 0,0 l/m 4 min 0 min 956 W/m 22,5 km/h (4 Bft) 97,87 %
02.07.2023 14:18 22,4 C 26,7 C 19,4 C 54 % 1011,4 hPa 0,0 l/m 2 min 0 min 991 W/m 25,7 km/h (4 Bft) 100,00 %
02.07.2023 14:20 22,5 C 26,1 C 19,4 C 54 % 1011,3 hPa 0,0 l/m 2 min 0 min 1061 W/m 16,1 km/h (3 Bft) 95,74 %
02.07.2023 14:22 22,5 C 25,6 C 18,9 C 55 % 1011,4 hPa 0,0 l/m 2 min 0 min 1074 W/m 16,1 km/h (3 Bft) 97,83 %
02.07.2023 14:24 22,6 C 25,0 C 19,4 C 55 % 1011,5 hPa 0,0 l/m 2 min 0 min 1074 W/m 22,5 km/h (4 Bft) 97,87 %
02.07.2023 14:26 22,5 C 23,9 C 18,9 C 55 % 1011,4 hPa 0,0 l/m 2 min 0 min 518 W/m 19,3 km/h (3 Bft) 95,74 %
02.07.2023 14:28 22,4 C 23,3 C 18,9 C 55 % 1011,5 hPa 0,0 l/m 0 min 0 min 363 W/m 22,5 km/h (4 Bft) 93,62 %
02.07.2023 14:30 22,3 C 23,3 C 18,9 C 55 % 1011,4 hPa 0,0 l/m 0 min 0 min 378 W/m 19,3 km/h (3 Bft) 95,74 %
02.07.2023 14:32 22,2 C 24,4 C 18,9 C 55 % 1011,4 hPa 0,0 l/m 0 min 0 min 401 W/m 12,9 km/h (3 Bft) 95,74 %
02.07.2023 14:34 22,2 C 25,6 C 18,9 C 57 % 1011,4 hPa 0,0 l/m 2 min 0 min 720 W/m 12,9 km/h (3 Bft) 95,74 %
02.07.2023 14:36 22,3 C 25,0 C 19,4 C 57 % 1011,3 hPa 0,0 l/m 2 min 0 min 686 W/m 22,5 km/h (4 Bft) 97,83 %
02.07.2023 14:38 22,3 C 23,3 C 18,9 C 55 % 1011,4 hPa 0,0 l/m 0 min 0 min 242 W/m 25,7 km/h (4 Bft) 95,74 %
02.07.2023 14:40 22,2 C 22,2 C 18,3 C 55 % 1011,4 hPa 0,0 l/m 0 min 0 min 225 W/m 19,3 km/h (3 Bft) 95,74 %
02.07.2023 14:42 22,1 C 22,8 C 18,3 C 55 % 1011,4 hPa 0,0 l/m 0 min 0 min 276 W/m 22,5 km/h (4 Bft) 95,74 %
02.07.2023 14:44 21,9 C 23,3 C 18,3 C 56 % 1011,5 hPa 0,0 l/m 0 min 0 min 329 W/m 16,1 km/h (3 Bft) 93,62 %
02.07.2023 14:46 21,9 C 25,0 C 18,3 C 56 % 1011,5 hPa 0,0 l/m 2 min 0 min 427 W/m 16,1 km/h (3 Bft) 93,62 %
02.07.2023 14:48 22,0 C 24,4 C 18,9 C 56 % 1011,4 hPa 0,0 l/m 0 min 0 min 364 W/m 25,7 km/h (4 Bft) 95,74 %
02.07.2023 14:50 22,1 C 24,4 C 18,3 C 56 % 1011,5 hPa 0,0 l/m 0 min 0 min 327 W/m 19,3 km/h (3 Bft) 95,65 %
02.07.2023 14:52 22,1 C 24,4 C 18,3 C 57 % 1011,5 hPa 0,0 l/m 2 min 0 min 579 W/m 22,5 km/h (4 Bft) 95,74 %
02.07.2023 14:54 22,2 C 23,9 C 18,3 C 56 % 1011,4 hPa 0,0 l/m 2 min 0 min 464 W/m 25,7 km/h (4 Bft) 95,74 %
02.07.2023 14:56 22,1 C 23,9 C 18,3 C 57 % 1011,5 hPa 0,0 l/m 2 min 0 min 495 W/m 16,1 km/h (3 Bft) 97,87 %
02.07.2023 14:58 22,1 C 23,9 C 18,3 C 57 % 1011,6 hPa 0,0 l/m 2 min 0 min 666 W/m 19,3 km/h (3 Bft) 95,74 %
02.07.2023 15:00 22,1 C 23,9 C 18,3 C 56 % 1011,5 hPa 0,0 l/m 2 min 0 min 666 W/m 16,1 km/h (3 Bft) 95,74 %
02.07.2023 15:02 22,1 C 25,0 C 18,3 C 57 % 1011,5 hPa 0,0 l/m 2 min 0 min 526 W/m 16,1 km/h (3 Bft) 95,74 %
02.07.2023 15:04 22,3 C 26,1 C 18,9 C 57 % 1011,5 hPa 0,0 l/m 2 min 0 min 905 W/m 25,7 km/h (4 Bft) 97,83 %
02.07.2023 15:06 22,4 C 26,1 C 18,9 C 56 % 1011,6 hPa 0,0 l/m 2 min 0 min 1034 W/m 29,0 km/h (5 Bft) 98,31 %
02.07.2023 15:08 22,6 C 26,7 C 18,9 C 57 % 1011,5 hPa 0,0 l/m 2 min 0 min 1024 W/m 16,1 km/h (3 Bft) 94,29 %
02.07.2023 15:10 22,7 C 27,2 C 18,9 C 56 % 1011,4 hPa 0,0 l/m 2 min 0 min 1018 W/m 19,3 km/h (3 Bft) 95,74 %
02.07.2023 15:12 22,9 C 26,7 C 18,9 C 57 % 1011,5 hPa 0,0 l/m 2 min 0 min 1057 W/m 12,9 km/h (3 Bft) 97,87 %
02.07.2023 15:14 23,0 C 25,0 C 18,9 C 56 % 1011,5 hPa 0,0 l/m 2 min 0 min 533 W/m 22,5 km/h (4 Bft) 93,62 %
02.07.2023 15:16 23,0 C 24,4 C 18,9 C 56 % 1011,5 hPa 0,0 l/m 2 min 0 min 433 W/m 16,1 km/h (3 Bft) 93,62 %
02.07.2023 15:18 22,9 C 24,4 C 18,9 C 56 % 1011,5 hPa 0,0 l/m 2 min 0 min 469 W/m 29,0 km/h (5 Bft) 95,65 %
02.07.2023 15:20 22,9 C 26,1 C 18,9 C 56 % 1011,5 hPa 0,0 l/m 2 min 0 min 684 W/m 19,3 km/h (3 Bft) 95,74 %
02.07.2023 15:22 22,8 C 25,6 C 18,9 C 55 % 1011,5 hPa 0,0 l/m 2 min 0 min 959 W/m 22,5 km/h (4 Bft) 93,62 %
02.07.2023 15:24 22,8 C 25,0 C 18,9 C 55 % 1011,5 hPa 0,0 l/m 2 min 0 min 954 W/m 19,3 km/h (3 Bft) 91,49 %
02.07.2023 15:26 22,8 C 25,0 C 18,9 C 55 % 1011,5 hPa 0,0 l/m 2 min 0 min 954 W/m 16,1 km/h (3 Bft) 95,74 %
02.07.2023 15:28 22,8 C 26,1 C 18,9 C 56 % 1011,6 hPa 0,0 l/m 2 min 0 min 965 W/m 16,1 km/h (3 Bft) 97,87 %
02.07.2023 15:30 22,9 C 26,7 C 18,9 C 55 % 1011,5 hPa 0,0 l/m 2 min 0 min 925 W/m 22,5 km/h (4 Bft) 97,87 %
02.07.2023 15:32 23,0 C 26,7 C 18,9 C 56 % 1011,5 hPa 0,0 l/m 2 min 0 min 933 W/m 25,7 km/h (4 Bft) 97,83 %
02.07.2023 15:34 23,1 C 26,1 C 18,9 C 56 % 1011,8 hPa 0,0 l/m 2 min 0 min 976 W/m 16,1 km/h (3 Bft) 97,87 %
02.07.2023 15:36 23,1 C 25,0 C 18,9 C 56 % 1011,6 hPa 0,0 l/m 2 min 0 min 792 W/m 16,1 km/h (3 Bft) 97,87 %
02.07.2023 15:38 23,1 C 24,4 C 18,9 C 57 % 1011,5 hPa 0,0 l/m 0 min 0 min 323 W/m 12,9 km/h (3 Bft) 97,87 %
02.07.2023 15:40 23,1 C 23,9 C 18,9 C 57 % 1011,5 hPa 0,0 l/m 0 min 0 min 320 W/m 16,1 km/h (3 Bft) 97,87 %
02.07.2023 15:42 22,9 C 25,0 C 18,9 C 56 % 1011,5 hPa 0,0 l/m 2 min 0 min 537 W/m 25,7 km/h (4 Bft) 97,87 %
02.07.2023 15:44 22,9 C 25,0 C 18,9 C 56 % 1011,6 hPa 0,0 l/m 2 min 0 min 873 W/m 19,3 km/h (3 Bft) 97,87 %
02.07.2023 15:46 22,9 C 23,9 C 18,3 C 56 % 1011,5 hPa 0,0 l/m 2 min 0 min 909 W/m 19,3 km/h (3 Bft) 100,00 %
02.07.2023 15:48 22,7 C 24,4 C 18,3 C 57 % 1011,5 hPa 0,0 l/m 2 min 0 min 909 W/m 22,5 km/h (4 Bft) 100,00 %
02.07.2023 15:50 22,7 C 24,4 C 18,9 C 57 % 1011,6 hPa 0,0 l/m 2 min 0 min 674 W/m 16,1 km/h (3 Bft) 100,00 %
02.07.2023 15:52 22,7 C 25,0 C 18,9 C 57 % 1011,7 hPa 0,0 l/m 2 min 0 min 397 W/m 16,1 km/h (3 Bft) 97,87 %
02.07.2023 15:54 22,7 C 23,9 C 18,9 C 56 % 1011,5 hPa 0,0 l/m 0 min 0 min 360 W/m 29,0 km/h (5 Bft) 100,00 %
02.07.2023 15:56 22,6 C 23,3 C 18,3 C 56 % 1011,5 hPa 0,0 l/m 0 min 0 min 265 W/m 19,3 km/h (3 Bft) 97,87 %
02.07.2023 15:58 22,5 C 22,8 C 18,3 C 57 % 1011,5 hPa 0,0 l/m 0 min 0 min 244 W/m 16,1 km/h (3 Bft) 100,00 %
02.07.2023 16:00 22,3 C 22,2 C 18,3 C 57 % 1011,5 hPa 0,0 l/m 0 min 0 min 278 W/m 19,3 km/h (3 Bft) 100,00 %
02.07.2023 16:02 22,2 C 23,9 C 18,3 C 58 % 1011,6 hPa 0,0 l/m 2 min 0 min 614 W/m 16,1 km/h (3 Bft) 100,00 %
02.07.2023 16:04 22,3 C 25,6 C 18,3 C 58 % 1011,6 hPa 0,0 l/m 2 min 0 min 911 W/m 29,0 km/h (5 Bft) 100,00 %
02.07.2023 16:06 22,4 C 26,1 C 18,9 C 58 % 1011,8 hPa 0,0 l/m 2 min 0 min 893 W/m 19,3 km/h (3 Bft) 98,31 %
02.07.2023 16:08 22,6 C 25,0 C 18,9 C 57 % 1011,6 hPa 0,0 l/m 2 min 0 min 881 W/m 19,3 km/h (3 Bft) 100,00 %
02.07.2023 16:10 22,6 C 23,9 C 18,3 C 57 % 1011,8 hPa 0,0 l/m 2 min 0 min 881 W/m 16,1 km/h (3 Bft) 100,00 %
02.07.2023 16:12 22,6 C 23,3 C 18,3 C 57 % 1011,6 hPa 0,0 l/m 2 min 0 min 677 W/m 19,3 km/h (3 Bft) 100,00 %
02.07.2023 16:14 22,5 C 23,3 C 18,3 C 58 % 1011,7 hPa 0,0 l/m 0 min 0 min 299 W/m 19,3 km/h (3 Bft) 97,83 %
02.07.2023 16:16 22,4 C 22,8 C 18,3 C 58 % 1011,7 hPa 0,0 l/m 0 min 0 min 232 W/m 12,9 km/h (3 Bft) 100,00 %
02.07.2023 16:18 22,4 C 22,2 C 18,3 C 58 % 1011,7 hPa 0,0 l/m 0 min 0 min 218 W/m 12,9 km/h (3 Bft) 100,00 %
02.07.2023 16:20 22,3 C 22,8 C 18,3 C 59 % 1011,6 hPa 0,0 l/m 0 min 0 min 256 W/m 16,1 km/h (3 Bft) 100,00 %
02.07.2023 16:22 22,3 C 22,8 C 18,3 C 58 % 1011,6 hPa 0,0 l/m 0 min 0 min 255 W/m 6,4 km/h (2 Bft) 100,00 %
02.07.2023 16:24 22,2 C 22,2 C 18,3 C 58 % 1011,6 hPa 0,0 l/m 0 min 0 min 225 W/m 16,1 km/h (3 Bft) 97,87 %
02.07.2023 16:26 22,2 C 22,2 C 18,3 C 58 % 1011,6 hPa 0,0 l/m 0 min 0 min 221 W/m 19,3 km/h (3 Bft) 100,00 %
02.07.2023 16:28 22,1 C 22,8 C 18,3 C 59 % 1011,6 hPa 0,0 l/m 0 min 0 min 243 W/m 12,9 km/h (3 Bft) 100,00 %
02.07.2023 16:30 22,2 C 24,4 C 18,3 C 59 % 1011,5 hPa 0,0 l/m 2 min 0 min 781 W/m 12,9 km/h (3 Bft) 100,00 %
02.07.2023 16:32 22,2 C 25,0 C 18,3 C 60 % 1011,6 hPa 0,0 l/m 2 min 0 min 879 W/m 16,1 km/h (3 Bft) 100,00 %
02.07.2023 16:34 22,4 C 24,4 C 18,9 C 60 % 1011,5 hPa 0,0 l/m 2 min 0 min 474 W/m 12,9 km/h (3 Bft) 100,00 %
02.07.2023 16:36 22,4 C 23,3 C 18,3 C 58 % 1011,5 hPa 0,0 l/m 0 min 0 min 301 W/m 12,9 km/h (3 Bft) 100,00 %
02.07.2023 16:38 22,4 C 23,3 C 18,3 C 57 % 1011,5 hPa 0,0 l/m 2 min 0 min 547 W/m 16,1 km/h (3 Bft) 100,00 %
02.07.2023 16:40 22,3 C 23,3 C 18,3 C 58 % 1011,6 hPa 0,0 l/m 2 min 0 min 433 W/m 16,1 km/h (3 Bft) 100,00 %
02.07.2023 16:42 22,4 C 22,8 C 18,3 C 58 % 1011,5 hPa 0,0 l/m 0 min 0 min 247 W/m 12,9 km/h (3 Bft) 100,00 %
02.07.2023 16:44 22,3 C 22,8 C 18,3 C 58 % 1011,5 hPa 0,0 l/m 0 min 0 min 248 W/m 19,3 km/h (3 Bft) 95,65 %
02.07.2023 16:46 22,3 C 23,3 C 18,3 C 58 % 1011,5 hPa 0,0 l/m 0 min 0 min 330 W/m 19,3 km/h (3 Bft) 100,00 %
02.07.2023 16:48 22,2 C 23,9 C 18,3 C 58 % 1011,5 hPa 0,0 l/m 2 min 0 min 547 W/m 16,1 km/h (3 Bft) 100,00 %
02.07.2023 16:50 22,2 C 23,3 C 18,3 C 58 % 1011,5 hPa 0,0 l/m 2 min 0 min 499 W/m 12,9 km/h (3 Bft) 100,00 %
02.07.2023 16:52 22,2 C 23,9 C 18,3 C 59 % 1011,4 hPa 0,0 l/m 0 min 0 min 216 W/m 16,1 km/h (3 Bft) 97,87 %
02.07.2023 16:54 22,2 C 23,3 C 18,3 C 59 % 1011,4 hPa 0,0 l/m 0 min 0 min 232 W/m 12,9 km/h (3 Bft) 97,87 %
02.07.2023 16:56 22,2 C 22,8 C 18,3 C 58 % 1011,4 hPa 0,0 l/m 0 min 0 min 230 W/m 12,9 km/h (3 Bft) 97,87 %
02.07.2023 16:58 22,2 C 22,2 C 18,3 C 58 % 1011,5 hPa 0,0 l/m 0 min 0 min 232 W/m 9,7 km/h (2 Bft) 97,83 %
02.07.2023 17:00 22,2 C 22,2 C 18,3 C 58 % 1011,4 hPa 0,0 l/m 0 min 0 min 247 W/m 16,1 km/h (3 Bft) 95,74 %
02.07.2023 17:02 22,2 C 22,2 C 17,8 C 58 % 1011,4 hPa 0,0 l/m 0 min 0 min 241 W/m 16,1 km/h (3 Bft) 93,62 %
02.07.2023 17:04 22,1 C 21,7 C 17,8 C 57 % 1011,5 hPa 0,0 l/m 0 min 0 min 228 W/m 12,9 km/h (3 Bft) 95,74 %
02.07.2023 17:06 22,0 C 21,7 C 17,8 C 58 % 1011,5 hPa 0,0 l/m 0 min 0 min 244 W/m 12,9 km/h (3 Bft) 95,83 %
02.07.2023 17:08 21,9 C 22,8 C 17,8 C 58 % 1011,4 hPa 0,0 l/m 0 min 0 min 276 W/m 16,1 km/h (3 Bft) 97,87 %
02.07.2023 17:10 21,9 C 22,8 C 17,8 C 58 % 1011,5 hPa 0,0 l/m 0 min 0 min 258 W/m 25,7 km/h (4 Bft) 97,87 %
02.07.2023 17:12 22,0 C 22,8 C 17,8 C 58 % 1011,4 hPa 0,0 l/m 0 min 0 min 214 W/m 29,0 km/h (5 Bft) 97,83 %
02.07.2023 17:14 22,0 C 22,8 C 18,3 C 58 % 1011,4 hPa 0,0 l/m 0 min 0 min 240 W/m 12,9 km/h (3 Bft) 93,62 %
02.07.2023 17:16 21,9 C 22,8 C 17,8 C 57 % 1011,3 hPa 0,0 l/m 0 min 0 min 303 W/m 25,7 km/h (4 Bft) 93,62 %
02.07.2023 17:18 21,9 C 22,8 C 17,8 C 57 % 1011,4 hPa 0,0 l/m 0 min 0 min 277 W/m 16,1 km/h (3 Bft) 93,62 %
02.07.2023 17:20 21,9 C 23,3 C 17,8 C 57 % 1011,4 hPa 0,0 l/m 0 min 0 min 271 W/m 19,3 km/h (3 Bft) 95,74 %
02.07.2023 17:22 22,0 C 22,8 C 17,8 C 57 % 1011,3 hPa 0,0 l/m 0 min 0 min 284 W/m 16,1 km/h (3 Bft) 93,62 %
02.07.2023 17:24 22,0 C 23,9 C 18,3 C 58 % 1011,4 hPa 0,0 l/m 2 min 0 min 454 W/m 12,9 km/h (3 Bft) 95,74 %
02.07.2023 17:26 22,1 C 25,0 C 18,3 C 58 % 1011,3 hPa 0,0 l/m 2 min 0 min 640 W/m 19,3 km/h (3 Bft) 95,65 %
02.07.2023 17:28 22,2 C 25,6 C 18,3 C 58 % 1011,3 hPa 0,0 l/m 2 min 0 min 637 W/m 6,4 km/h (2 Bft) 95,74 %
02.07.2023 17:30 22,3 C 23,9 C 18,3 C 58 % 1011,3 hPa 0,0 l/m 2 min 0 min 417 W/m 16,1 km/h (3 Bft) 95,74 %
02.07.2023 17:32 22,3 C 25,0 C 18,3 C 57 % 1011,3 hPa 0,0 l/m 2 min 0 min 491 W/m 16,1 km/h (3 Bft) 95,74 %
02.07.2023 17:34 22,4 C 25,6 C 18,3 C 56 % 1011,2 hPa 0,0 l/m 2 min 0 min 669 W/m 22,5 km/h (4 Bft) 95,74 %
02.07.2023 17:36 22,6 C 26,1 C 18,9 C 57 % 1011,2 hPa 0,0 l/m 2 min 0 min 636 W/m 12,9 km/h (3 Bft) 97,87 %
02.07.2023 17:38 22,7 C 26,1 C 18,9 C 56 % 1011,2 hPa 0,0 l/m 2 min 0 min 628 W/m 19,3 km/h (3 Bft) 97,87 %
02.07.2023 17:40 22,7 C 25,6 C 18,9 C 56 % 1011,3 hPa 0,0 l/m 2 min 0 min 628 W/m 12,9 km/h (3 Bft) 97,83 %
02.07.2023 17:42 22,8 C 26,1 C 18,9 C 56 % 1011,3 hPa 0,0 l/m 2 min 0 min 638 W/m 16,1 km/h (3 Bft) 97,87 %
02.07.2023 17:44 22,9 C 25,6 C 18,9 C 56 % 1011,3 hPa 0,0 l/m 2 min 0 min 624 W/m 29,0 km/h (5 Bft) 97,87 %
02.07.2023 17:46 22,9 C 26,1 C 18,9 C 55 % 1011,3 hPa 0,0 l/m 2 min 0 min 603 W/m 16,1 km/h (3 Bft) 97,87 %
02.07.2023 17:48 22,9 C 26,1 C 18,9 C 55 % 1011,2 hPa 0,0 l/m 2 min 0 min 578 W/m 22,5 km/h (4 Bft) 100,00 %
02.07.2023 17:50 22,9 C 26,1 C 18,9 C 55 % 1011,3 hPa 0,0 l/m 2 min 0 min 588 W/m 16,1 km/h (3 Bft) 100,00 %
02.07.2023 17:52 22,9 C 26,1 C 18,9 C 54 % 1011,3 hPa 0,0 l/m 2 min 0 min 624 W/m 19,3 km/h (3 Bft) 95,74 %
02.07.2023 17:54 23,0 C 26,7 C 19,4 C 55 % 1011,2 hPa 0,0 l/m 2 min 0 min 627 W/m 16,1 km/h (3 Bft) 97,92 %
02.07.2023 17:56 23,1 C 26,1 C 19,4 C 54 % 1011,2 hPa 0,0 l/m 2 min 0 min 599 W/m 19,3 km/h (3 Bft) 95,74 %
02.07.2023 17:58 23,1 C 25,0 C 19,4 C 54 % 1011,2 hPa 0,0 l/m 2 min 0 min 409 W/m 16,1 km/h (3 Bft) 97,83 %
02.07.2023 18:00 23,0 C 23,9 C 18,9 C 54 % 1011,3 hPa 0,0 l/m 0 min 0 min 160 W/m 19,3 km/h (3 Bft) 91,43 %
02.07.2023 18:02 22,9 C 25,0 C 18,9 C 54 % 1011,4 hPa 0,0 l/m 2 min 0 min 449 W/m 25,7 km/h (4 Bft) 97,96 %
02.07.2023 18:04 22,9 C 25,0 C 18,9 C 55 % 1011,3 hPa 0,0 l/m 2 min 0 min 573 W/m 19,3 km/h (3 Bft) 97,92 %
02.07.2023 18:08 22,9 C 26,1 C 19,4 C 55 % 1011,3 hPa 0,0 l/m 4 min 0 min 537 W/m 22,5 km/h (4 Bft) 96,81 %
02.07.2023 18:10 23,0 C 26,1 C 18,9 C 54 % 1011,3 hPa 0,0 l/m 2 min 0 min 363 W/m 12,9 km/h (3 Bft) 95,74 %
02.07.2023 18:12 23,0 C 26,1 C 18,9 C 55 % 1011,1 hPa 0,0 l/m 2 min 0 min 425 W/m 22,5 km/h (4 Bft) 97,87 %
02.07.2023 18:14 23,1 C 26,1 C 18,9 C 55 % 1011,2 hPa 0,0 l/m 2 min 0 min 517 W/m 16,1 km/h (3 Bft) 97,87 %
02.07.2023 18:16 23,1 C 26,1 C 18,9 C 55 % 1011,2 hPa 0,0 l/m 2 min 0 min 487 W/m 19,3 km/h (3 Bft) 97,83 %
02.07.2023 18:18 23,0 C 25,0 C 18,9 C 54 % 1011,2 hPa 0,0 l/m 2 min 0 min 461 W/m 22,5 km/h (4 Bft) 97,87 %
02.07.2023 18:20 22,9 C 25,0 C 18,9 C 54 % 1011,2 hPa 0,0 l/m 2 min 0 min 461 W/m 35,4 km/h (5 Bft) 97,87 %
02.07.2023 18:22 22,8 C 25,6 C 18,9 C 55 % 1011,2 hPa 0,0 l/m 2 min 0 min 544 W/m 16,1 km/h (3 Bft) 97,87 %
02.07.2023 18:24 22,8 C 26,1 C 19,4 C 55 % 1011,2 hPa 0,0 l/m 2 min 0 min 561 W/m 16,1 km/h (3 Bft) 97,87 %
02.07.2023 18:26 22,9 C 26,7 C 19,4 C 55 % 1011,1 hPa 0,0 l/m 2 min 0 min 508 W/m 9,7 km/h (2 Bft) 95,74 %
02.07.2023 18:28 23,0 C 27,2 C 19,4 C 55 % 1011,2 hPa 0,0 l/m 2 min 0 min 530 W/m 16,1 km/h (3 Bft) 97,87 %
02.07.2023 18:30 23,1 C 26,1 C 19,4 C 55 % 1011,2 hPa 0,0 l/m 2 min 0 min 526 W/m 12,9 km/h (3 Bft) 97,83 %
02.07.2023 18:32 23,1 C 26,1 C 19,4 C 55 % 1011,1 hPa 0,0 l/m 2 min 0 min 497 W/m 12,9 km/h (3 Bft) 95,74 %
02.07.2023 18:34 23,2 C 25,6 C 19,4 C 55 % 1011,2 hPa 0,0 l/m 2 min 0 min 397 W/m 16,1 km/h (3 Bft) 95,74 %
02.07.2023 18:36 23,1 C 23,9 C 18,9 C 54 % 1011,1 hPa 0,0 l/m 0 min 0 min 120 W/m 12,9 km/h (3 Bft) 96,30 %
02.07.2023 18:38 22,9 C 22,8 C 18,9 C 55 % 1011,2 hPa 0,0 l/m 0 min 0 min 129 W/m 6,4 km/h (2 Bft) 100,00 %
02.07.2023 18:40 22,9 C 22,8 C 18,3 C 55 % 1011,2 hPa 0,0 l/m 0 min 0 min 160 W/m 6,4 km/h (2 Bft) 97,83 %
02.07.2023 18:42 22,8 C 23,9 C 18,3 C 55 % 1011,2 hPa 0,0 l/m 2 min 0 min 223 W/m 9,7 km/h (2 Bft) 95,74 %
02.07.2023 18:44 22,7 C 23,3 C 18,9 C 55 % 1011,2 hPa 0,0 l/m 2 min 0 min 344 W/m 19,3 km/h (3 Bft) 97,87 %
02.07.2023 18:46 22,7 C 24,4 C 18,3 C 54 % 1011,1 hPa 0,0 l/m 2 min 0 min 315 W/m 16,1 km/h (3 Bft) 97,92 %
02.07.2023 18:48 22,7 C 25,0 C 18,9 C 55 % 1011,1 hPa 0,0 l/m 2 min 0 min 419 W/m 12,9 km/h (3 Bft) 97,87 %
02.07.2023 18:50 22,7 C 25,6 C 18,9 C 55 % 1011,1 hPa 0,0 l/m 2 min 0 min 400 W/m 16,1 km/h (3 Bft) 100,00 %
02.07.2023 18:52 22,7 C 26,1 C 18,9 C 55 % 1011,0 hPa 0,0 l/m 2 min 0 min 401 W/m 16,1 km/h (3 Bft) 100,00 %
02.07.2023 18:54 22,7 C 26,1 C 18,9 C 56 % 1011,0 hPa 0,0 l/m 2 min 0 min 409 W/m 12,9 km/h (3 Bft) 100,00 %
02.07.2023 18:56 22,8 C 26,1 C 18,9 C 55 % 1011,0 hPa 0,0 l/m 2 min 0 min 405 W/m 16,1 km/h (3 Bft) 100,00 %
02.07.2023 18:58 22,8 C 26,1 C 18,9 C 55 % 1011,0 hPa 0,0 l/m 2 min 0 min 389 W/m 19,3 km/h (3 Bft) 100,00 %
02.07.2023 19:00 22,8 C 25,0 C 18,9 C 55 % 1011,0 hPa 0,0 l/m 2 min 0 min 320 W/m 12,9 km/h (3 Bft) 97,87 %
02.07.2023 19:02 22,8 C 23,9 C 18,9 C 55 % 1011,0 hPa 0,0 l/m 0 min 0 min 127 W/m 12,9 km/h (3 Bft) 100,00 %
02.07.2023 19:04 22,7 C 23,3 C 18,3 C 55 % 1011,0 hPa 0,0 l/m 0 min 0 min 130 W/m 12,9 km/h (3 Bft) 97,87 %
02.07.2023 19:06 22,6 C 23,3 C 18,3 C 55 % 1011,0 hPa 0,0 l/m 2 min 0 min 186 W/m 16,1 km/h (3 Bft) 98,33 %
02.07.2023 19:08 22,6 C 23,9 C 18,3 C 56 % 1011,0 hPa 0,0 l/m 2 min 0 min 347 W/m 12,9 km/h (3 Bft) 100,00 %
02.07.2023 19:10 22,4 C 23,9 C 18,3 C 56 % 1011,0 hPa 0,0 l/m 2 min 0 min 238 W/m 12,9 km/h (3 Bft) 100,00 %
02.07.2023 19:12 22,4 C 23,9 C 18,3 C 56 % 1011,0 hPa 0,0 l/m 2 min 0 min 306 W/m 12,9 km/h (3 Bft) 100,00 %
02.07.2023 19:14 22,3 C 23,9 C 18,3 C 56 % 1011,0 hPa 0,0 l/m 2 min 0 min 268 W/m 16,1 km/h (3 Bft) 97,87 %
02.07.2023 19:16 22,3 C 23,9 C 18,3 C 56 % 1011,1 hPa 0,0 l/m 2 min 0 min 262 W/m 16,1 km/h (3 Bft) 97,87 %
02.07.2023 19:18 22,3 C 23,3 C 18,3 C 56 % 1011,0 hPa 0,0 l/m 2 min 0 min 298 W/m 16,1 km/h (3 Bft) 97,87 %
02.07.2023 19:20 22,2 C 22,8 C 17,8 C 56 % 1011,0 hPa 0,0 l/m 2 min 0 min 223 W/m 12,9 km/h (3 Bft) 95,65 %
02.07.2023 19:22 22,2 C 22,2 C 17,8 C 58 % 1011,0 hPa 0,0 l/m 0 min 0 min 90 W/m 19,3 km/h (3 Bft) 95,74 %
02.07.2023 19:24 22,1 C 21,7 C 17,8 C 57 % 1011,0 hPa 0,0 l/m 0 min 0 min 118 W/m 12,9 km/h (3 Bft) 95,74 %
02.07.2023 19:26 22,1 C 21,7 C 17,8 C 57 % 1010,9 hPa 0,0 l/m 0 min 0 min 112 W/m 12,9 km/h (3 Bft) 95,74 %
02.07.2023 19:28 21,9 C 21,1 C 17,2 C 58 % 1011,0 hPa 0,0 l/m 0 min 0 min 107 W/m 16,1 km/h (3 Bft) 95,74 %
02.07.2023 19:30 21,8 C 21,1 C 17,2 C 58 % 1011,0 hPa 0,0 l/m 0 min 0 min 111 W/m 16,1 km/h (3 Bft) 95,74 %
02.07.2023 19:34 21,7 C 21,1 C 17,2 C 58 % 1011,0 hPa 0,0 l/m 0 min 0 min 121 W/m 19,3 km/h (3 Bft) 94,68 %
02.07.2023 19:36 21,7 C 21,7 C 17,2 C 59 % 1011,0 hPa 0,0 l/m 2 min 0 min 179 W/m 6,4 km/h (2 Bft) 95,65 %
02.07.2023 19:38 21,7 C 21,7 C 17,8 C 59 % 1011,0 hPa 0,0 l/m 2 min 0 min 193 W/m 6,4 km/h (2 Bft) 95,74 %
02.07.2023 19:40 21,7 C 21,7 C 17,8 C 59 % 1011,0 hPa 0,0 l/m 2 min 0 min 147 W/m 12,9 km/h (3 Bft) 91,49 %
02.07.2023 19:42 21,7 C 21,1 C 17,8 C 59 % 1010,9 hPa 0,0 l/m 0 min 0 min 119 W/m 9,7 km/h (2 Bft) 93,62 %
02.07.2023 19:44 21,7 C 21,1 C 17,2 C 59 % 1010,9 hPa 0,0 l/m 0 min 0 min 100 W/m 6,4 km/h (2 Bft) 95,74 %
02.07.2023 19:46 21,7 C 21,1 C 17,2 C 59 % 1010,9 hPa 0,0 l/m 0 min 0 min 98 W/m 12,9 km/h (3 Bft) 95,74 %
02.07.2023 19:48 21,7 C 21,1 C 17,2 C 59 % 1011,0 hPa 0,0 l/m 0 min 0 min 102 W/m 6,4 km/h (2 Bft) 93,62 %
02.07.2023 19:50 21,7 C 21,1 C 17,2 C 59 % 1010,9 hPa 0,0 l/m 0 min 0 min 105 W/m 9,7 km/h (2 Bft) 95,74 %
02.07.2023 19:52 21,6 C 21,1 C 17,2 C 59 % 1010,8 hPa 0,0 l/m 0 min 0 min 103 W/m 6,4 km/h (2 Bft) 97,83 %
02.07.2023 19:54 21,6 C 21,1 C 17,2 C 59 % 1010,8 hPa 0,0 l/m 2 min 0 min 132 W/m 6,4 km/h (2 Bft) 95,74 %
02.07.2023 19:56 21,6 C 21,1 C 17,2 C 60 % 1010,8 hPa 0,0 l/m 0 min 0 min 107 W/m 12,9 km/h (3 Bft) 95,74 %
02.07.2023 19:58 21,6 C 21,1 C 17,2 C 59 % 1010,8 hPa 0,0 l/m 2 min 0 min 123 W/m 12,9 km/h (3 Bft) 97,87 %
02.07.2023 20:00 21,6 C 21,1 C 17,2 C 59 % 1010,8 hPa 0,0 l/m 2 min 0 min 137 W/m 6,4 km/h (2 Bft) 97,87 %
02.07.2023 20:02 21,6 C 21,1 C 17,2 C 59 % 1010,8 hPa 0,0 l/m 2 min 0 min 121 W/m 6,4 km/h (2 Bft) 97,87 %
02.07.2023 20:04 21,5 C 21,1 C 17,2 C 59 % 1010,8 hPa 0,0 l/m 0 min 0 min 98 W/m 16,1 km/h (3 Bft) 97,83 %
02.07.2023 20:06 21,5 C 21,1 C 17,2 C 60 % 1010,8 hPa 0,0 l/m 0 min 0 min 80 W/m 6,4 km/h (2 Bft) 100,00 %
02.07.2023 20:08 21,5 C 20,6 C 17,2 C 60 % 1010,7 hPa 0,0 l/m 0 min 0 min 69 W/m 6,4 km/h (2 Bft) 100,00 %
02.07.2023 20:10 21,4 C 20,6 C 17,2 C 60 % 1010,7 hPa 0,0 l/m 0 min 0 min 70 W/m 3,2 km/h (1 Bft) 95,74 %
02.07.2023 20:12 21,4 C 20,6 C 17,2 C 60 % 1010,7 hPa 0,0 l/m 0 min 0 min 70 W/m 6,4 km/h (2 Bft) 100,00 %
02.07.2023 20:14 21,4 C 20,6 C 17,2 C 61 % 1010,7 hPa 0,0 l/m 0 min 0 min 65 W/m 6,4 km/h (2 Bft) 100,00 %
02.07.2023 20:16 21,4 C 20,6 C 17,2 C 61 % 1010,7 hPa 0,0 l/m 0 min 0 min 58 W/m 6,4 km/h (2 Bft) 100,00 %
02.07.2023 20:18 21,3 C 20,6 C 17,2 C 60 % 1010,7 hPa 0,0 l/m 0 min 0 min 51 W/m 6,4 km/h (2 Bft) 100,00 %
02.07.2023 20:20 21,3 C 20,0 C 16,7 C 60 % 1010,7 hPa 0,0 l/m 0 min 0 min 45 W/m 6,4 km/h (2 Bft) 100,00 %
02.07.2023 20:22 21,3 C 20,6 C 16,7 C 60 % 1010,7 hPa 0,0 l/m 0 min 0 min 39 W/m 6,4 km/h (2 Bft) 100,00 %
02.07.2023 20:24 21,2 C 20,6 C 16,7 C 61 % 1010,7 hPa 0,0 l/m 0 min 0 min 38 W/m 6,4 km/h (2 Bft) 100,00 %
02.07.2023 20:26 21,2 C 20,6 C 16,7 C 61 % 1010,7 hPa 0,0 l/m 0 min 0 min 40 W/m 6,4 km/h (2 Bft) 100,00 %
02.07.2023 20:28 21,2 C 20,6 C 16,7 C 60 % 1010,7 hPa 0,0 l/m 0 min 0 min 51 W/m 16,1 km/h (3 Bft) 100,00 %
02.07.2023 20:30 21,2 C 20,6 C 16,7 C 61 % 1010,7 hPa 0,0 l/m 0 min 0 min 69 W/m 6,4 km/h (2 Bft) 100,00 %
02.07.2023 20:32 21,1 C 20,6 C 16,7 C 61 % 1010,7 hPa 0,0 l/m 0 min 0 min 74 W/m 6,4 km/h (2 Bft) 100,00 %
02.07.2023 20:34 21,2 C 20,6 C 16,7 C 61 % 1010,7 hPa 0,0 l/m 0 min 0 min 70 W/m 9,7 km/h (2 Bft) 95,74 %
02.07.2023 20:36 21,1 C 20,6 C 16,7 C 61 % 1010,7 hPa 0,0 l/m 0 min 0 min 61 W/m 6,4 km/h (2 Bft) 100,00 %
02.07.2023 20:38 21,1 C 20,6 C 16,7 C 61 % 1010,7 hPa 0,0 l/m 0 min 0 min 49 W/m 6,4 km/h (2 Bft) 100,00 %
02.07.2023 20:40 21,1 C 20,6 C 16,7 C 62 % 1010,7 hPa 0,0 l/m 0 min 0 min 44 W/m 3,2 km/h (1 Bft) 100,00 %
02.07.2023 20:42 21,1 C 20,0 C 16,7 C 62 % 1010,7 hPa 0,0 l/m 0 min 0 min 35 W/m 6,4 km/h (2 Bft) 100,00 %
02.07.2023 20:44 21,1 C 20,0 C 16,7 C 62 % 1010,7 hPa 0,0 l/m 0 min 0 min 31 W/m 3,2 km/h (1 Bft) 100,00 %
02.07.2023 20:46 21,1 C 20,0 C 16,7 C 62 % 1010,7 hPa 0,0 l/m 0 min 0 min 33 W/m 9,7 km/h (2 Bft) 100,00 %
02.07.2023 20:48 21,1 C 20,0 C 16,7 C 62 % 1010,7 hPa 0,0 l/m 0 min 0 min 31 W/m 6,4 km/h (2 Bft) 95,74 %
02.07.2023 20:50 21,0 C 20,0 C 16,7 C 62 % 1010,7 hPa 0,0 l/m 0 min 0 min 27 W/m 6,4 km/h (2 Bft) 100,00 %
02.07.2023 20:52 21,0 C 20,0 C 16,7 C 62 % 1010,7 hPa 0,0 l/m 0 min 0 min 25 W/m 3,2 km/h (1 Bft) 100,00 %
02.07.2023 20:54 20,9 C 20,0 C 16,7 C 62 % 1010,6 hPa 0,0 l/m 0 min 0 min 23 W/m 6,4 km/h (2 Bft) 100,00 %
02.07.2023 20:56 20,9 C 20,0 C 16,7 C 62 % 1010,7 hPa 0,0 l/m 0 min 0 min 23 W/m 6,4 km/h (2 Bft) 100,00 %
02.07.2023 20:58 20,9 C 20,0 C 16,1 C 63 % 1010,7 hPa 0,0 l/m 0 min 0 min 25 W/m 3,2 km/h (1 Bft) 97,87 %
02.07.2023 21:00 20,9 C 19,4 C 16,1 C 64 % 1010,6 hPa 0,0 l/m 0 min 0 min 26 W/m 3,2 km/h (1 Bft) 100,00 %
02.07.2023 21:02 20,8 C 19,4 C 16,1 C 64 % 1010,6 hPa 0,0 l/m 0 min 0 min 26 W/m 3,2 km/h (1 Bft) 97,87 %
02.07.2023 21:04 20,8 C 19,4 C 16,1 C 64 % 1010,6 hPa 0,0 l/m 0 min 0 min 29 W/m 3,2 km/h (1 Bft) 97,96 %
02.07.2023 21:06 20,7 C 19,4 C 16,1 C 64 % 1010,5 hPa 0,0 l/m 0 min 0 min 30 W/m 3,2 km/h (1 Bft) 96,55 %
02.07.2023 21:08 20,7 C 19,4 C 16,1 C 64 % 1010,5 hPa 0,0 l/m 0 min 0 min 28 W/m 3,2 km/h (1 Bft) 97,22 %
02.07.2023 21:10 20,7 C 19,4 C 16,1 C 64 % 1010,5 hPa 0,0 l/m 0 min 0 min 25 W/m 3,2 km/h (1 Bft) 95,65 %
02.07.2023 21:12 20,6 C 19,4 C 16,1 C 64 % 1010,5 hPa 0,0 l/m 0 min 0 min 22 W/m 3,2 km/h (1 Bft) 95,74 %
02.07.2023 21:14 20,6 C 19,4 C 16,1 C 65 % 1010,5 hPa 0,0 l/m 0 min 0 min 19 W/m 3,2 km/h (1 Bft) 97,87 %
02.07.2023 21:16 20,6 C 19,4 C 16,1 C 65 % 1010,4 hPa 0,0 l/m 0 min 0 min 17 W/m 3,2 km/h (1 Bft) 95,74 %
02.07.2023 21:18 20,5 C 19,4 C 16,1 C 64 % 1010,4 hPa 0,0 l/m 0 min 0 min 15 W/m 6,4 km/h (2 Bft) 95,74 %
02.07.2023 21:20 20,5 C 19,4 C 16,1 C 65 % 1010,4 hPa 0,0 l/m 0 min 0 min 12 W/m 3,2 km/h (1 Bft) 95,74 %
02.07.2023 21:22 20,4 C 19,4 C 16,1 C 65 % 1010,4 hPa 0,0 l/m 0 min 0 min 14 W/m 3,2 km/h (1 Bft) 93,62 %
02.07.2023 21:24 20,4 C 19,4 C 16,1 C 65 % 1010,4 hPa 0,0 l/m 0 min 0 min 14 W/m 3,2 km/h (1 Bft) 95,65 %
02.07.2023 21:26 20,4 C 18,9 C 16,1 C 65 % 1010,4 hPa 0,0 l/m 0 min 0 min 15 W/m 3,2 km/h (1 Bft) 95,74 %
02.07.2023 21:28 20,3 C 18,9 C 16,1 C 65 % 1010,5 hPa 0,0 l/m 0 min 0 min 14 W/m 3,2 km/h (1 Bft) 95,74 %
02.07.2023 21:30 20,3 C 18,9 C 16,1 C 65 % 1010,4 hPa 0,0 l/m 0 min 0 min 14 W/m 9,7 km/h (2 Bft) 93,62 %
02.07.2023 21:32 20,3 C 18,9 C 16,1 C 65 % 1010,4 hPa 0,0 l/m 0 min 0 min 12 W/m 6,4 km/h (2 Bft) 95,74 %
02.07.2023 21:34 20,2 C 18,9 C 15,6 C 65 % 1010,4 hPa 0,0 l/m 0 min 0 min 14 W/m 3,2 km/h (1 Bft) 95,74 %
02.07.2023 21:36 20,2 C 18,9 C 15,6 C 65 % 1010,5 hPa 0,0 l/m 0 min 0 min 16 W/m 3,2 km/h (1 Bft) 95,74 %
02.07.2023 21:38 20,2 C 18,9 C 15,6 C 66 % 1010,5 hPa 0,0 l/m 0 min 0 min 16 W/m 3,2 km/h (1 Bft) 95,65 %
02.07.2023 21:40 20,1 C 18,9 C 15,6 C 66 % 1010,5 hPa 0,0 l/m 0 min 0 min 14 W/m 9,7 km/h (2 Bft) 95,74 %
02.07.2023 21:42 20,1 C 18,9 C 15,6 C 66 % 1010,5 hPa 0,0 l/m 0 min 0 min 12 W/m 6,4 km/h (2 Bft) 95,74 %
02.07.2023 21:44 20,1 C 18,9 C 15,6 C 66 % 1010,5 hPa 0,0 l/m 0 min 0 min 11 W/m 6,4 km/h (2 Bft) 95,74 %
02.07.2023 21:46 20,1 C 18,9 C 15,6 C 66 % 1010,6 hPa 0,0 l/m 0 min 0 min 11 W/m 6,4 km/h (2 Bft) 95,74 %
02.07.2023 21:48 20,0 C 18,9 C 15,6 C 66 % 1010,6 hPa 0,0 l/m 0 min 0 min 11 W/m 3,2 km/h (1 Bft) 97,87 %
02.07.2023 21:50 19,9 C 18,9 C 15,6 C 66 % 1010,6 hPa 0,0 l/m 0 min 0 min 11 W/m 6,4 km/h (2 Bft) 97,87 %
02.07.2023 21:52 19,9 C 18,9 C 15,6 C 67 % 1010,6 hPa 0,0 l/m 0 min 0 min 9 W/m 3,2 km/h (1 Bft) 95,74 %
02.07.2023 21:54 19,8 C 18,9 C 15,6 C 67 % 1010,6 hPa 0,0 l/m 0 min 0 min 7 W/m 6,4 km/h (2 Bft) 97,83 %
02.07.2023 21:56 19,8 C 18,9 C 15,6 C 67 % 1010,7 hPa 0,0 l/m 0 min 0 min 6 W/m 6,4 km/h (2 Bft) 100,00 %
02.07.2023 21:58 19,8 C 18,9 C 15,6 C 67 % 1010,7 hPa 0,0 l/m 0 min 0 min 5 W/m 6,4 km/h (2 Bft) 100,00 %
02.07.2023 22:00 19,8 C 18,9 C 15,6 C 67 % 1010,7 hPa 0,0 l/m 0 min 0 min 5 W/m 6,4 km/h (2 Bft) 100,00 %
02.07.2023 22:02 19,7 C 18,9 C 15,6 C 67 % 1010,8 hPa 0,0 l/m 0 min 0 min 4 W/m 3,2 km/h (1 Bft) 97,87 %
02.07.2023 22:04 19,7 C 18,9 C 15,6 C 68 % 1010,8 hPa 0,0 l/m 0 min 0 min 0 W/m 6,4 km/h (2 Bft) 97,92 %
02.07.2023 22:06 19,7 C 18,9 C 15,6 C 67 % 1010,8 hPa 0,0 l/m 0 min 0 min 0 W/m 6,4 km/h (2 Bft) 98,28 %
02.07.2023 22:08 19,7 C 18,9 C 15,6 C 67 % 1010,8 hPa 0,0 l/m 0 min 0 min 0 W/m 6,4 km/h (2 Bft) 97,22 %
02.07.2023 22:10 19,6 C 18,9 C 15,6 C 67 % 1010,8 hPa 0,0 l/m 0 min 0 min 0 W/m 12,9 km/h (3 Bft) 97,83 %
02.07.2023 22:12 19,6 C 18,9 C 15,6 C 67 % 1010,8 hPa 0,0 l/m 0 min 0 min 0 W/m 6,4 km/h (2 Bft) 97,87 %
02.07.2023 22:14 19,6 C 18,9 C 15,6 C 67 % 1010,8 hPa 0,0 l/m 0 min 0 min 0 W/m 3,2 km/h (1 Bft) 97,87 %
02.07.2023 22:16 19,6 C 18,9 C 15,6 C 67 % 1010,8 hPa 0,0 l/m 0 min 0 min 0 W/m 3,2 km/h (1 Bft) 95,74 %
02.07.2023 22:18 19,6 C 18,9 C 15,6 C 68 % 1010,8 hPa 0,0 l/m 0 min 0 min 0 W/m 3,2 km/h (1 Bft) 97,87 %
02.07.2023 22:20 19,6 C 18,3 C 15,6 C 68 % 1010,9 hPa 0,0 l/m 0 min 0 min 0 W/m 12,9 km/h (3 Bft) 97,87 %
02.07.2023 22:22 19,6 C 18,3 C 15,6 C 67 % 1010,9 hPa 0,0 l/m 0 min 0 min 0 W/m 6,4 km/h (2 Bft) 97,83 %
02.07.2023 22:24 19,5 C 18,3 C 15,0 C 67 % 1010,9 hPa 0,0 l/m 0 min 0 min 0 W/m 6,4 km/h (2 Bft) 97,87 %
02.07.2023 22:26 19,5 C 18,3 C 15,0 C 68 % 1010,9 hPa 0,0 l/m 0 min 0 min 0 W/m 6,4 km/h (2 Bft) 97,87 %
02.07.2023 22:28 19,4 C 18,3 C 15,0 C 68 % 1011,0 hPa 0,0 l/m 0 min 0 min 0 W/m 3,2 km/h (1 Bft) 97,87 %
02.07.2023 22:30 19,4 C 18,3 C 15,0 C 68 % 1010,9 hPa 0,0 l/m 0 min 0 min 0 W/m 6,4 km/h (2 Bft) 97,87 %
02.07.2023 22:32 19,4 C 18,3 C 15,0 C 68 % 1011,0 hPa 0,0 l/m 0 min 0 min 0 W/m 6,4 km/h (2 Bft) 97,87 %
02.07.2023 22:34 19,4 C 18,3 C 15,0 C 68 % 1011,0 hPa 0,0 l/m 0 min 0 min 0 W/m 3,2 km/h (1 Bft) 95,74 %
02.07.2023 22:36 19,3 C 18,3 C 15,0 C 68 % 1011,0 hPa 0,0 l/m 0 min 0 min 0 W/m 3,2 km/h (1 Bft) 95,65 %
02.07.2023 22:38 19,3 C 17,8 C 15,0 C 68 % 1011,1 hPa 0,0 l/m 0 min 0 min 0 W/m 3,2 km/h (1 Bft) 97,87 %
02.07.2023 22:40 19,3 C 17,8 C 14,4 C 69 % 1011,1 hPa 0,0 l/m 0 min 0 min 0 W/m 3,2 km/h (1 Bft) 97,87 %
02.07.2023 22:42 19,3 C 17,8 C 14,4 C 69 % 1011,0 hPa 0,0 l/m 0 min 0 min 0 W/m 3,2 km/h (1 Bft) 97,87 %
02.07.2023 22:44 19,2 C 17,8 C 14,4 C 69 % 1011,0 hPa 0,0 l/m 0 min 0 min 0 W/m 3,2 km/h (1 Bft) 97,87 %
02.07.2023 22:46 19,2 C 17,8 C 14,4 C 69 % 1011,1 hPa 0,0 l/m 0 min 0 min 0 W/m 6,4 km/h (2 Bft) 97,87 %
02.07.2023 22:48 19,1 C 17,8 C 14,4 C 69 % 1011,1 hPa 0,0 l/m 0 min 0 min 0 W/m 3,2 km/h (1 Bft) 97,87 %
02.07.2023 22:50 19,1 C 17,8 C 14,4 C 69 % 1011,2 hPa 0,0 l/m 0 min 0 min 0 W/m 3,2 km/h (1 Bft) 97,87 %
02.07.2023 22:52 19,1 C 17,8 C 14,4 C 69 % 1011,2 hPa 0,0 l/m 0 min 0 min 0 W/m 3,2 km/h (1 Bft) 95,65 %
02.07.2023 22:54 19,0 C 17,8 C 14,4 C 70 % 1011,2 hPa 0,0 l/m 0 min 0 min 0 W/m 3,2 km/h (1 Bft) 100,00 %
02.07.2023 22:56 18,9 C 17,8 C 14,4 C 70 % 1011,3 hPa 0,0 l/m 0 min 0 min 0 W/m 3,2 km/h (1 Bft) 100,00 %
02.07.2023 22:58 18,9 C 17,8 C 14,4 C 70 % 1011,2 hPa 0,0 l/m 0 min 0 min 0 W/m 3,2 km/h (1 Bft) 100,00 %
02.07.2023 23:00 18,8 C 17,2 C 14,4 C 70 % 1011,2 hPa 0,0 l/m 0 min 0 min 0 W/m 3,2 km/h (1 Bft) 95,74 %
02.07.2023 23:02 18,8 C 17,2 C 14,4 C 70 % 1011,2 hPa 0,0 l/m 0 min 0 min 0 W/m 0,0 km/h (0 Bft) 97,87 %
02.07.2023 23:04 18,8 C 17,2 C 13,9 C 70 % 1011,3 hPa 0,0 l/m 0 min 0 min 0 W/m 0,0 km/h (0 Bft) 100,00 %
02.07.2023 23:06 18,7 C 17,2 C 13,9 C 71 % 1011,3 hPa 0,0 l/m 0 min 0 min 0 W/m 3,2 km/h (1 Bft) 96,55 %
02.07.2023 23:08 18,7 C 17,2 C 13,9 C 71 % 1011,4 hPa 0,0 l/m 0 min 0 min 0 W/m 3,2 km/h (1 Bft) 94,29 %
02.07.2023 23:10 18,7 C 17,2 C 13,9 C 70 % 1011,3 hPa 0,0 l/m 0 min 0 min 0 W/m 3,2 km/h (1 Bft) 97,87 %
02.07.2023 23:12 18,6 C 17,2 C 13,9 C 70 % 1011,4 hPa 0,0 l/m 0 min 0 min 0 W/m 0,0 km/h (0 Bft) 95,74 %
02.07.2023 23:14 18,6 C 17,2 C 13,9 C 70 % 1011,4 hPa 0,0 l/m 0 min 0 min 0 W/m 3,2 km/h (1 Bft) 97,87 %
02.07.2023 23:16 18,5 C 17,2 C 13,9 C 71 % 1011,5 hPa 0,0 l/m 0 min 0 min 0 W/m 3,2 km/h (1 Bft) 95,74 %
02.07.2023 23:18 18,5 C 17,2 C 13,9 C 71 % 1011,5 hPa 0,0 l/m 0 min 0 min 0 W/m 0,0 km/h (0 Bft) 97,87 %
02.07.2023 23:20 18,4 C 17,2 C 13,9 C 71 % 1011,5 hPa 0,0 l/m 0 min 0 min 0 W/m 3,2 km/h (1 Bft) 95,65 %
02.07.2023 23:22 18,4 C 17,2 C 13,9 C 71 % 1011,5 hPa 0,0 l/m 0 min 0 min 0 W/m 3,2 km/h (1 Bft) 97,87 %
02.07.2023 23:24 18,4 C 17,2 C 13,9 C 71 % 1011,5 hPa 0,0 l/m 0 min 0 min 0 W/m 0,0 km/h (0 Bft) 97,87 %
02.07.2023 23:26 18,4 C 17,2 C 13,9 C 71 % 1011,6 hPa 0,0 l/m 0 min 0 min 0 W/m 6,4 km/h (2 Bft) 97,92 %
02.07.2023 23:28 18,4 C 17,2 C 13,9 C 71 % 1011,6 hPa 0,0 l/m 0 min 0 min 0 W/m 3,2 km/h (1 Bft) 97,67 %
02.07.2023 23:30 18,3 C 17,2 C 13,9 C 71 % 1011,5 hPa 0,0 l/m 0 min 0 min 0 W/m 6,4 km/h (2 Bft) 97,83 %
02.07.2023 23:32 18,3 C 17,2 C 13,9 C 71 % 1011,6 hPa 0,0 l/m 0 min 0 min 0 W/m 3,2 km/h (1 Bft) 97,87 %
02.07.2023 23:34 18,3 C 17,2 C 13,9 C 71 % 1011,6 hPa 0,0 l/m 0 min 0 min 0 W/m 19,3 km/h (3 Bft) 97,87 %
02.07.2023 23:36 18,3 C 17,2 C 13,9 C 71 % 1011,6 hPa 0,0 l/m 0 min 0 min 0 W/m 3,2 km/h (1 Bft) 97,87 %
02.07.2023 23:38 18,2 C 17,2 C 13,9 C 71 % 1011,5 hPa 0,0 l/m 0 min 0 min 0 W/m 3,2 km/h (1 Bft) 95,83 %
02.07.2023 23:40 18,2 C 17,2 C 13,9 C 71 % 1011,6 hPa 0,0 l/m 0 min 0 min 0 W/m 9,7 km/h (2 Bft) 100,00 %
02.07.2023 23:42 18,2 C 17,2 C 13,9 C 70 % 1011,6 hPa 0,0 l/m 0 min 0 min 0 W/m 9,7 km/h (2 Bft) 93,62 %
02.07.2023 23:44 18,2 C 17,2 C 13,9 C 70 % 1011,6 hPa 0,0 l/m 0 min 0 min 0 W/m 3,2 km/h (1 Bft) 97,83 %
02.07.2023 23:46 18,1 C 17,2 C 13,9 C 70 % 1011,6 hPa 0,0 l/m 0 min 0 min 0 W/m 12,9 km/h (3 Bft) 100,00 %
02.07.2023 23:48 18,1 C 17,2 C 13,9 C 70 % 1011,6 hPa 0,0 l/m 0 min 0 min 0 W/m 6,4 km/h (2 Bft) 100,00 %
02.07.2023 23:50 18,1 C 17,2 C 13,9 C 70 % 1011,6 hPa 0,0 l/m 0 min 0 min 0 W/m 3,2 km/h (1 Bft) 100,00 %
02.07.2023 23:52 18,0 C 16,7 C 13,9 C 70 % 1011,6 hPa 0,0 l/m 0 min 0 min 0 W/m 12,9 km/h (3 Bft) 95,74 %
02.07.2023 23:54 18,0 C 16,7 C 13,9 C 69 % 1011,6 hPa 0,0 l/m 0 min 0 min 0 W/m 6,4 km/h (2 Bft) 97,87 %
02.07.2023 23:56 17,9 C 16,7 C 13,9 C 69 % 1011,6 hPa 0,0 l/m 0 min 0 min 0 W/m 6,4 km/h (2 Bft) 97,87 %
02.07.2023 23:58 17,9 C 16,7 C 13,9 C 69 % 1011,7 hPa 0,0 l/m 0 min 0 min 0 W/m 19,3 km/h (3 Bft) 97,83 %
_ Min-Zeit 05:16 04:20 03:38 13:34 03:38 - - - - 23:02 12:44
Minimum _ 15,9 C 15,0 C 12,2 C 54 % 1007,6 hPa - - - - 0,0 km/h (0 Bft) 50,00 %
_ Max-Zeit 18:34 14:04 13:54 00:00 15:34 00:00 13:20 00:00 13:26 18:20 00:08
Maximum _ 23,2 C 27,2 C 23,3 C 88 % 1011,8 hPa 0,0 l/m 4 min 0 min 1174 W/m 35,4 km/h
O-SO (5 Bft)
100,00 %
Durchschnitt _ 19,2 C 19,6 C 15,6 C 72 % 1010,1 hPa #0,0 l/m #6:05 h #0 min. 324 W/m 12,7 km/h (3 Bft) 97,42 %
© 2023 W. Hausmann